Observation data for Big Lake on 11/13/2019      Previous  Date       Current Mesonet Observations  Soil Data  Daily Summary Page  Observations in Plain Language
KBI1 130600Z 13003KT M01/M09 A3029 RMK A01 T10121091  RH  055%=      5-min Rain = 0
KBI1 130601Z 13004KT M01/M09 A3029 RMK A01 T10121089  RH  056%=      5-min Rain = 0
KBI1 130602Z 13004KT M01/M09 A3029 RMK A01 T10121089  RH  056%=      5-min Rain = 0
KBI1 130603Z 14003KT M01/M09 A3029 RMK A01 T10121090  RH  055%=      5-min Rain = 0
KBI1 130604Z 14004KT M01/M09 A3029 RMK A01 T10121092  RH  055%=      5-min Rain = 0
KBI1 130605Z 14004KT M01/M10 A3029 RMK A01 T10121095  RH  053%=      5-min Rain = 0
KBI1 130606Z 14003KT M01/M10 A3029 RMK A01 T10111096  RH  052%=      5-min Rain = 0
KBI1 130607Z 13004KT M01/M10 A3029 RMK A01 T10111096  RH  053%=      5-min Rain = 0
KBI1 130608Z 13004KT M01/M10 A3029 RMK A01 T10101097  RH  052%=      5-min Rain = 0
KBI1 130609Z 13004KT M01/M10 A3029 RMK A01 T10091097  RH  052%=      5-min Rain = 0
KBI1 130610Z 12004KT M01/M10 A3029 RMK A01 T10091095  RH  052%=      5-min Rain = 0
KBI1 130611Z 13004KT M01/M09 A3028 RMK A01 T10101094  RH  053%=      5-min Rain = 0
KBI1 130612Z 13005KT M01/M10 A3028 RMK A01 T10101095  RH  052%=      5-min Rain = 0
KBI1 130613Z 13005KT M01/M10 A3028 RMK A01 T10101096  RH  052%=      5-min Rain = 0
KBI1 130614Z 14004KT M01/M10 A3028 RMK A01 T10101096  RH  052%=      5-min Rain = 0
KBI1 130615Z 14005KT M01/M10 A3028 RMK A01 T10101097  RH  052%=      5-min Rain = 0
KBI1 130616Z 14004KT M01/M10 A3028 RMK A01 T10101097  RH  052%=      5-min Rain = 0
KBI1 130617Z 14004KT M01/M10 A3028 RMK A01 T10101096  RH  052%=      5-min Rain = 0
KBI1 130618Z 14003KT M01/M10 A3028 RMK A01 T10101096  RH  052%=      5-min Rain = 0
KBI1 130619Z 15003KT M01/M10 A3027 RMK A01 T10101095  RH  053%=      5-min Rain = 0
KBI1 130620Z 15004KT M01/M09 A3028 RMK A01 T10101093  RH  053%=      5-min Rain = 0
KBI1 130621Z 14003KT M01/M09 A3028 RMK A01 T10101093  RH  053%=      5-min Rain = 0
KBI1 130622Z 14003KT M01/M09 A3028 RMK A01 T10111094  RH  053%=      5-min Rain = 0
KBI1 130623Z 15004KT M01/M09 A3028 RMK A01 T10111094  RH  053%=      5-min Rain = 0
KBI1 130624Z 15004KT M01/M10 A3028 RMK A01 T10101096  RH  052%=      5-min Rain = 0
KBI1 130625Z 16004KT M01/M10 A3028 RMK A01 T10101095  RH  053%=      5-min Rain = 0
KBI1 130626Z 15005KT M01/M10 A3028 RMK A01 T10091095  RH  052%=      5-min Rain = 0
KBI1 130627Z 15005KT M01/M10 A3028 RMK A01 T10091096  RH  052%=      5-min Rain = 0
KBI1 130628Z 15005KT M01/M10 A3028 RMK A01 T10081096  RH  051%=      5-min Rain = 0
KBI1 130629Z 16005KT M01/M10 A3028 RMK A01 T10071098  RH  050%=      5-min Rain = 0
KBI1 130630Z 15005KT M01/M10 A3028 RMK A01 T10071097  RH  051%=      5-min Rain = 0
KBI1 130631Z 15005KT M01/M10 A3028 RMK A01 T10071097  RH  051%=      5-min Rain = 0
KBI1 130632Z 15005KT M01/M10 A3027 RMK A01 T10061097  RH  050%=      5-min Rain = 0
KBI1 130633Z 15005KT M01/M10 A3027 RMK A01 T10061097  RH  050%=      5-min Rain = 0
KBI1 130634Z 16006KT M01/M10 A3027 RMK A01 T10061097  RH  050%=      5-min Rain = 0
KBI1 130635Z 16005KT M01/M10 A3027 RMK A01 T10061098  RH  050%=      5-min Rain = 0
KBI1 130636Z 16006KT M01/M10 A3027 RMK A01 T10061097  RH  050%=      5-min Rain = 0
KBI1 130637Z 16005KT M01/M10 A3028 RMK A01 T10061097  RH  050%=      5-min Rain = 0
KBI1 130638Z 16005KT M01/M09 A3028 RMK A01 T10061094  RH  052%=      5-min Rain = 0
KBI1 130639Z 16005KT M01/M09 A3028 RMK A01 T10071091  RH  053%=      5-min Rain = 0
KBI1 130640Z 16005KT M01/M09 A3028 RMK A01 T10081091  RH  053%=      5-min Rain = 0
KBI1 130641Z 16005KT M01/M09 A3028 RMK A01 T10091089  RH  055%=      5-min Rain = 0
KBI1 130642Z 16006KT M01/M09 A3028 RMK A01 T10101088  RH  056%=      5-min Rain = 0
KBI1 130643Z 16006KT M01/M09 A3028 RMK A01 T10101089  RH  055%=      5-min Rain = 0
KBI1 130644Z 16006KT M01/M09 A3028 RMK A01 T10111089  RH  055%=      5-min Rain = 0
KBI1 130645Z 16006KT M01/M09 A3028 RMK A01 T10111088  RH  056%=      5-min Rain = 0
KBI1 130646Z 16005KT M01/M09 A3028 RMK A01 T10111087  RH  056%=      5-min Rain = 0
KBI1 130647Z 17006KT M01/M09 A3028 RMK A01 T10111086  RH  057%=      5-min Rain = 0
KBI1 130648Z 17006KT M01/M09 A3028 RMK A01 T10121085  RH  057%=      5-min Rain = 0
KBI1 130649Z 17005KT M01/M09 A3028 RMK A01 T10121085  RH  058%=      5-min Rain = 0
KBI1 130650Z 17005KT M01/M08 A3028 RMK A01 T10121084  RH  058%=      5-min Rain = 0
KBI1 130651Z 17005KT M01/M08 A3028 RMK A01 T10121082  RH  059%=      5-min Rain = 0
KBI1 130652Z 17005KT M01/M08 A3028 RMK A01 T10131081  RH  060%=      5-min Rain = 0
KBI1 130653Z 17005KT M01/M08 A3028 RMK A01 T10141080  RH  060%=      5-min Rain = 0
KBI1 130654Z 17006KT M01/M08 A3028 RMK A01 T10141080  RH  061%=      5-min Rain = 0
KBI1 130655Z 17006KT M02/M08 A3028 RMK A01 T10151079  RH  061%=      5-min Rain = 0
KBI1 130656Z 17006KT M02/M08 A3028 RMK A01 T10151078  RH  062%=      5-min Rain = 0
KBI1 130657Z 17007KT M02/M08 A3028 RMK A01 T10161077  RH  063%=      5-min Rain = 0
KBI1 130658Z 17006KT M02/M08 A3028 RMK A01 T10161077  RH  063%=      5-min Rain = 0
KBI1 130659Z 17006KT M02/M08 A3028 RMK A01 T10161077  RH  063%=      5-min Rain = 0
KBI1 130700Z 17006KT M02/M08 A3028 RMK A01 T10161076  RH  064%=      5-min Rain = 0
KBI1 130701Z 17006KT M02/M08 A3028 RMK A01 T10161076  RH  064%=      5-min Rain = 0
KBI1 130702Z 17007KT M02/M08 A3028 RMK A01 T10161076  RH  064%=      5-min Rain = 0
KBI1 130703Z 17006KT M02/M08 A3028 RMK A01 T10161077  RH  063%=      5-min Rain = 0
KBI1 130704Z 16006KT M02/M08 A3028 RMK A01 T10161077  RH  063%=      5-min Rain = 0
KBI1 130705Z 16006KT M02/M08 A3028 RMK A01 T10161077  RH  063%=      5-min Rain = 0
KBI1 130706Z 16006KT M02/M08 A3028 RMK A01 T10151078  RH  062%=      5-min Rain = 0
KBI1 130707Z 16006KT M02/M08 A3028 RMK A01 T10151078  RH  062%=      5-min Rain = 0
KBI1 130708Z 17006KT M02/M08 A3028 RMK A01 T10151079  RH  062%=      5-min Rain = 0
KBI1 130709Z 17006KT M01/M08 A3028 RMK A01 T10141079  RH  062%=      5-min Rain = 0
KBI1 130710Z 17006KT M01/M08 A3028 RMK A01 T10141078  RH  062%=      5-min Rain = 0
KBI1 130711Z 16007KT M01/M08 A3028 RMK A01 T10141078  RH  062%=      5-min Rain = 0
KBI1 130712Z 16007KT M01/M08 A3028 RMK A01 T10141080  RH  061%=      5-min Rain = 0
KBI1 130713Z 17006KT M01/M08 A3028 RMK A01 T10141081  RH  060%=      5-min Rain = 0
KBI1 130714Z 17006KT M01/M08 A3028 RMK A01 T10141082  RH  060%=      5-min Rain = 0
KBI1 130715Z 17007KT M01/M08 A3028 RMK A01 T10131081  RH  060%=      5-min Rain = 0
KBI1 130716Z 17007KT M01/M08 A3028 RMK A01 T10131081  RH  060%=      5-min Rain = 0
KBI1 130717Z 17007KT M01/M08 A3028 RMK A01 T10131082  RH  060%=      5-min Rain = 0
KBI1 130718Z 16007KT M01/M08 A3028 RMK A01 T10131082  RH  060%=      5-min Rain = 0
KBI1 130719Z 17006KT M01/M08 A3028 RMK A01 T10131081  RH  060%=      5-min Rain = 0
KBI1 130720Z 16005KT M01/M08 A3028 RMK A01 T10131080  RH  060%=      5-min Rain = 0
KBI1 130721Z 17007KT M01/M08 A3028 RMK A01 T10131079  RH  061%=      5-min Rain = 0
KBI1 130722Z 16007KT M01/M08 A3028 RMK A01 T10131080  RH  060%=      5-min Rain = 0
KBI1 130723Z 17007KT M01/M08 A3028 RMK A01 T10131080  RH  060%=      5-min Rain = 0
KBI1 130724Z 17006KT M01/M08 A3028 RMK A01 T10131080  RH  060%=      5-min Rain = 0
KBI1 130725Z 16006KT M01/M08 A3028 RMK A01 T10131079  RH  061%=      5-min Rain = 0
KBI1 130726Z 16008KT M01/M08 A3028 RMK A01 T10131079  RH  061%=      5-min Rain = 0
KBI1 130727Z 16007KT M01/M08 A3028 RMK A01 T10141080  RH  060%=      5-min Rain = 0
KBI1 130728Z 17007KT M01/M08 A3028 RMK A01 T10141081  RH  060%=      5-min Rain = 0
KBI1 130729Z 17007KT M01/M08 A3028 RMK A01 T10131080  RH  061%=      5-min Rain = 0
KBI1 130730Z 16007KT M01/M08 A3028 RMK A01 T10131080  RH  061%=      5-min Rain = 0
KBI1 130731Z 16005KT M01/M08 A3028 RMK A01 T10131080  RH  061%=      5-min Rain = 0
KBI1 130732Z 16007KT M01/M08 A3028 RMK A01 T10131079  RH  061%=      5-min Rain = 0
KBI1 130733Z 17008KT M01/M08 A3028 RMK A01 T10131079  RH  061%=      5-min Rain = 0
KBI1 130734Z 17008KT M01/M08 A3028 RMK A01 T10131078  RH  061%=      5-min Rain = 0
KBI1 130735Z 17008KT M01/M08 A3028 RMK A01 T10131079  RH  061%=      5-min Rain = 0
KBI1 130736Z 16008KT M01/M08 A3028 RMK A01 T10131078  RH  061%=      5-min Rain = 0
KBI1 130737Z 17009KT M01/M08 A3027 RMK A01 T10131078  RH  062%=      5-min Rain = 0
KBI1 130738Z 16007KT M01/M08 A3027 RMK A01 T10131078  RH  061%=      5-min Rain = 0
KBI1 130739Z 16008KT M01/M08 A3027 RMK A01 T10131077  RH  062%=      5-min Rain = 0
KBI1 130740Z 16007KT M01/M08 A3027 RMK A01 T10131076  RH  062%=      5-min Rain = 0
KBI1 130741Z 17008KT M01/M08 A3027 RMK A01 T10131076  RH  062%=      5-min Rain = 0
KBI1 130742Z 17008KT M01/M08 A3027 RMK A01 T10131076  RH  062%=      5-min Rain = 0
KBI1 130743Z 16008KT M01/M08 A3027 RMK A01 T10131075  RH  063%=      5-min Rain = 0
KBI1 130744Z 17008KT M01/M08 A3027 RMK A01 T10131076  RH  062%=      5-min Rain = 0
KBI1 130745Z 17008KT M01/M08 A3027 RMK A01 T10131076  RH  062%=      5-min Rain = 0
KBI1 130746Z 17008KT M01/M08 A3027 RMK A01 T10121076  RH  062%=      5-min Rain = 0
KBI1 130747Z 17008KT M01/M08 A3027 RMK A01 T10121076  RH  062%=      5-min Rain = 0
KBI1 130748Z 17009KT M01/M08 A3027 RMK A01 T10121077  RH  061%=      5-min Rain = 0
KBI1 130749Z 17010KT M01/M08 A3027 RMK A01 T10111077  RH  061%=      5-min Rain = 0
KBI1 130750Z 17009KT M01/M08 A3027 RMK A01 T10111078  RH  061%=      5-min Rain = 0
KBI1 130751Z 16009KT M01/M08 A3027 RMK A01 T10111078  RH  060%=      5-min Rain = 0
KBI1 130752Z 17009KT M01/M08 A3027 RMK A01 T10111079  RH  060%=      5-min Rain = 0
KBI1 130753Z 17010KT M01/M08 A3027 RMK A01 T10101078  RH  060%=      5-min Rain = 0
KBI1 130754Z 17009KT M01/M08 A3027 RMK A01 T10101079  RH  060%=      5-min Rain = 0
KBI1 130755Z 17009KT M01/M08 A3027 RMK A01 T10101079  RH  060%=      5-min Rain = 0
KBI1 130756Z 17008KT M01/M08 A3027 RMK A01 T10101079  RH  060%=      5-min Rain = 0
KBI1 130757Z 17009KT M01/M08 A3027 RMK A01 T10101078  RH  060%=      5-min Rain = 0
KBI1 130758Z 17009KT M01/M08 A3027 RMK A01 T10101078  RH  060%=      5-min Rain = 0
KBI1 130759Z 17007KT M01/M08 A3027 RMK A01 T10101078  RH  060%=      5-min Rain = 0
KBI1 130800Z 17009KT M01/M08 A3027 RMK A01 T10111077  RH  060%=      5-min Rain = 0
KBI1 130801Z 18008KT M01/M08 A3027 RMK A01 T10111078  RH  061%=      5-min Rain = 0
KBI1 130802Z 17010KT M01/M08 A3027 RMK A01 T10111077  RH  061%=      5-min Rain = 0
KBI1 130803Z 18009KT M01/M08 A3026 RMK A01 T10111076  RH  061%=      5-min Rain = 0
KBI1 130804Z 18008KT M01/M08 A3026 RMK A01 T10121075  RH  062%=      5-min Rain = 0
KBI1 130805Z 17010KT M01/M08 A3026 RMK A01 T10121075  RH  063%=      5-min Rain = 0
KBI1 130806Z 18009KT M01/M08 A3026 RMK A01 T10121075  RH  062%=      5-min Rain = 0
KBI1 130807Z 17009KT M01/M07 A3026 RMK A01 T10131074  RH  063%=      5-min Rain = 0
KBI1 130808Z 17008KT M01/M07 A3026 RMK A01 T10131073  RH  064%=      5-min Rain = 0
KBI1 130809Z 18009KT M01/M07 A3026 RMK A01 T10131072  RH  064%=      5-min Rain = 0
KBI1 130810Z 18010KT M01/M07 A3026 RMK A01 T10131073  RH  064%=      5-min Rain = 0
KBI1 130811Z 17009KT M01/M07 A3026 RMK A01 T10131073  RH  063%=      5-min Rain = 0
KBI1 130812Z 17010KT M01/M07 A3026 RMK A01 T10131073  RH  063%=      5-min Rain = 0
KBI1 130813Z 17010KT M01/M07 A3026 RMK A01 T10131074  RH  063%=      5-min Rain = 0
KBI1 130814Z 17010KT M01/M07 A3026 RMK A01 T10131074  RH  063%=      5-min Rain = 0
KBI1 130815Z 17011KT M01/M07 A3026 RMK A01 T10121074  RH  063%=      5-min Rain = 0
KBI1 130816Z 17009KT M01/M07 A3026 RMK A01 T10121073  RH  063%=      5-min Rain = 0
KBI1 130817Z 17009KT M01/M07 A3026 RMK A01 T10121073  RH  063%=      5-min Rain = 0
KBI1 130818Z 17009KT M01/M07 A3026 RMK A01 T10121073  RH  063%=      5-min Rain = 0
KBI1 130819Z 17009KT M01/M07 A3026 RMK A01 T10121073  RH  063%=      5-min Rain = 0
KBI1 130820Z 17009KT M01/M07 A3026 RMK A01 T10121073  RH  063%=      5-min Rain = 0
KBI1 130821Z 17011KT M01/M07 A3026 RMK A01 T10121072  RH  064%=      5-min Rain = 0
KBI1 130822Z 17009KT M01/M07 A3026 RMK A01 T10121073  RH  063%=      5-min Rain = 0
KBI1 130823Z 17009KT M01/M07 A3026 RMK A01 T10111072  RH  063%=      5-min Rain = 0
KBI1 130824Z 17011KT M01/M07 A3026 RMK A01 T10121072  RH  063%=      5-min Rain = 0
KBI1 130825Z 17009KT M01/M07 A3026 RMK A01 T10121073  RH  063%=      5-min Rain = 0
KBI1 130826Z 17009KT M01/M07 A3026 RMK A01 T10121072  RH  064%=      5-min Rain = 0
KBI1 130827Z 17010KT M01/M07 A3026 RMK A01 T10111072  RH  064%=      5-min Rain = 0
KBI1 130828Z 17009KT M01/M07 A3026 RMK A01 T10121072  RH  063%=      5-min Rain = 0
KBI1 130829Z 18009KT M01/M07 A3026 RMK A01 T10111071  RH  064%=      5-min Rain = 0
KBI1 130830Z 18010KT M01/M07 A3026 RMK A01 T10111071  RH  064%=      5-min Rain = 0
KBI1 130831Z 18010KT M01/M07 A3026 RMK A01 T10111071  RH  064%=      5-min Rain = 0
KBI1 130832Z 18009KT M01/M07 A3026 RMK A01 T10111071  RH  064%=      5-min Rain = 0
KBI1 130833Z 18009KT M01/M07 A3026 RMK A01 T10111070  RH  064%=      5-min Rain = 0
KBI1 130834Z 18009KT M01/M07 A3026 RMK A01 T10111069  RH  065%=      5-min Rain = 0
KBI1 130835Z 18010KT M01/M07 A3026 RMK A01 T10111069  RH  065%=      5-min Rain = 0
KBI1 130836Z 18009KT M01/M07 A3026 RMK A01 T10111069  RH  065%=      5-min Rain = 0
KBI1 130837Z 18008KT M01/M07 A3026 RMK A01 T10111069  RH  065%=      5-min Rain = 0
KBI1 130838Z 17008KT M01/M07 A3026 RMK A01 T10111068  RH  065%=      5-min Rain = 0
KBI1 130839Z 17008KT M01/M07 A3026 RMK A01 T10111068  RH  065%=      5-min Rain = 0
KBI1 130840Z 17009KT M01/M07 A3026 RMK A01 T10111067  RH  066%=      5-min Rain = 0
KBI1 130841Z 17008KT M01/M07 A3026 RMK A01 T10111067  RH  065%=      5-min Rain = 0
KBI1 130842Z 17009KT M01/M07 A3026 RMK A01 T10111068  RH  065%=      5-min Rain = 0
KBI1 130843Z 17010KT M01/M07 A3025 RMK A01 T10111067  RH  066%=      5-min Rain = 0
KBI1 130844Z 17009KT M01/M07 A3025 RMK A01 T10111067  RH  065%=      5-min Rain = 0
KBI1 130845Z 17009KT M01/M07 A3025 RMK A01 T10111067  RH  066%=      5-min Rain = 0
KBI1 130846Z 17011KT M01/M07 A3025 RMK A01 T10111067  RH  066%=      5-min Rain = 0
KBI1 130847Z 17009KT M01/M07 A3025 RMK A01 T10111067  RH  066%=      5-min Rain = 0
KBI1 130848Z 17010KT M01/M07 A3025 RMK A01 T10101067  RH  066%=      5-min Rain = 0
KBI1 130849Z 17009KT M01/M07 A3025 RMK A01 T10101067  RH  065%=      5-min Rain = 0
KBI1 130850Z 17009KT M01/M07 A3024 RMK A01 T10101067  RH  065%=      5-min Rain = 0
KBI1 130851Z 17009KT M01/M07 A3024 RMK A01 T10101067  RH  065%=      5-min Rain = 0
KBI1 130852Z 16009KT M01/M07 A3024 RMK A01 T10101068  RH  065%=      5-min Rain = 0
KBI1 130853Z 16008KT M01/M07 A3024 RMK A01 T10101068  RH  065%=      5-min Rain = 0
KBI1 130854Z 17008KT M01/M07 A3024 RMK A01 T10101068  RH  065%=      5-min Rain = 0
KBI1 130855Z 16009KT M01/M07 A3024 RMK A01 T10101068  RH  064%=      5-min Rain = 0
KBI1 130856Z 17008KT M01/M07 A3024 RMK A01 T10091069  RH  064%=      5-min Rain = 0
KBI1 130857Z 16008KT M01/M07 A3024 RMK A01 T10091069  RH  064%=      5-min Rain = 0
KBI1 130858Z 16008KT M01/M07 A3024 RMK A01 T10091069  RH  064%=      5-min Rain = 0
KBI1 130859Z 16007KT M01/M07 A3024 RMK A01 T10091069  RH  064%=      5-min Rain = 0
KBI1 130900Z 16006KT M01/M07 A3024 RMK A01 T10091069  RH  064%=      5-min Rain = 0
KBI1 130901Z 16007KT M01/M07 A3024 RMK A01 T10081068  RH  064%=      5-min Rain = 0
KBI1 130902Z 16007KT M01/M07 A3023 RMK A01 T10081068  RH  064%=      5-min Rain = 0
KBI1 130903Z 16006KT M01/M07 A3023 RMK A01 T10081069  RH  064%=      5-min Rain = 0
KBI1 130904Z 16006KT M01/M07 A3023 RMK A01 T10081068  RH  064%=      5-min Rain = 0
KBI1 130905Z 16005KT M01/M07 A3023 RMK A01 T10081069  RH  064%=      5-min Rain = 0
KBI1 130906Z 16006KT M01/M07 A3023 RMK A01 T10081068  RH  064%=      5-min Rain = 0
KBI1 130907Z 16006KT M01/M07 A3023 RMK A01 T10081069  RH  064%=      5-min Rain = 0
KBI1 130908Z 16006KT M01/M07 A3022 RMK A01 T10081068  RH  064%=      5-min Rain = 0
KBI1 130909Z 16005KT M01/M07 A3022 RMK A01 T10081068  RH  064%=      5-min Rain = 0
KBI1 130910Z 16006KT M01/M07 A3022 RMK A01 T10071068  RH  064%=      5-min Rain = 0
KBI1 130911Z 15006KT M01/M07 A3022 RMK A01 T10071067  RH  064%=      5-min Rain = 0
KBI1 130912Z 15006KT M01/M07 A3022 RMK A01 T10081067  RH  064%=      5-min Rain = 0
KBI1 130913Z 16005KT M01/M07 A3022 RMK A01 T10071068  RH  064%=      5-min Rain = 0
KBI1 130914Z 16005KT M01/M07 A3022 RMK A01 T10071067  RH  064%=      5-min Rain = 0
KBI1 130915Z 16006KT M01/M07 A3022 RMK A01 T10071067  RH  064%=      5-min Rain = 0
KBI1 130916Z 16006KT M01/M07 A3022 RMK A01 T10071067  RH  064%=      5-min Rain = 0
KBI1 130917Z 16005KT M01/M07 A3022 RMK A01 T10071066  RH  064%=      5-min Rain = 0
KBI1 130918Z 16006KT M01/M07 A3022 RMK A01 T10071066  RH  064%=      5-min Rain = 0
KBI1 130919Z 16006KT M01/M07 A3022 RMK A01 T10061065  RH  065%=      5-min Rain = 0
KBI1 130920Z 17006KT M01/M07 A3022 RMK A01 T10061065  RH  065%=      5-min Rain = 0
KBI1 130921Z 17006KT M01/M07 A3022 RMK A01 T10061065  RH  065%=      5-min Rain = 0
KBI1 130922Z 17007KT M01/M07 A3022 RMK A01 T10071065  RH  065%=      5-min Rain = 0
KBI1 130923Z 17007KT M01/M06 A3022 RMK A01 T10061064  RH  065%=      5-min Rain = 0
KBI1 130924Z 17007KT M01/M07 A3022 RMK A01 T10061065  RH  065%=      5-min Rain = 0
KBI1 130925Z 17006KT M01/M07 A3022 RMK A01 T10061065  RH  065%=      5-min Rain = 0
KBI1 130926Z 17007KT M01/M06 A3022 RMK A01 T10071064  RH  065%=      5-min Rain = 0
KBI1 130927Z 17008KT M01/M06 A3022 RMK A01 T10061064  RH  065%=      5-min Rain = 0
KBI1 130928Z 17008KT M01/M07 A3022 RMK A01 T10061065  RH  065%=      5-min Rain = 0
KBI1 130929Z 17008KT M01/M07 A3022 RMK A01 T10061065  RH  064%=      5-min Rain = 0
KBI1 130930Z 18008KT M01/M07 A3022 RMK A01 T10061065  RH  064%=      5-min Rain = 0
KBI1 130931Z 17009KT M01/M07 A3022 RMK A01 T10061065  RH  064%=      5-min Rain = 0
KBI1 130932Z 17010KT M01/M07 A3022 RMK A01 T10061066  RH  064%=      5-min Rain = 0
KBI1 130933Z 17010KT M01/M07 A3022 RMK A01 T10061067  RH  063%=      5-min Rain = 0
KBI1 130934Z 17009KT M01/M07 A3022 RMK A01 T10061067  RH  063%=      5-min Rain = 0
KBI1 130935Z 17009KT M01/M07 A3022 RMK A01 T10061068  RH  063%=      5-min Rain = 0
KBI1 130936Z 17008KT M01/M07 A3022 RMK A01 T10051067  RH  063%=      5-min Rain = 0
KBI1 130937Z 17009KT M01/M07 A3022 RMK A01 T10051067  RH  063%=      5-min Rain = 0
KBI1 130938Z 17008KT M01/M07 A3022 RMK A01 T10051067  RH  063%=      5-min Rain = 0
KBI1 130939Z 17008KT M01/M07 A3022 RMK A01 T10051067  RH  063%=      5-min Rain = 0
KBI1 130940Z 17009KT M01/M07 A3022 RMK A01 T10051066  RH  063%=      5-min Rain = 0
KBI1 130941Z 17007KT M01/M07 A3022 RMK A01 T10051066  RH  063%=      5-min Rain = 0
KBI1 130942Z 17008KT M01/M07 A3022 RMK A01 T10051066  RH  064%=      5-min Rain = 0
KBI1 130943Z 17008KT M01/M07 A3022 RMK A01 T10051066  RH  064%=      5-min Rain = 0
KBI1 130944Z 17007KT M01/M07 A3022 RMK A01 T10051065  RH  064%=      5-min Rain = 0
KBI1 130945Z 17009KT M01/M07 A3022 RMK A01 T10051065  RH  064%=      5-min Rain = 0
KBI1 130946Z 17009KT M01/M06 A3022 RMK A01 T10051064  RH  064%=      5-min Rain = 0
KBI1 130947Z 17010KT M01/M06 A3021 RMK A01 T10051064  RH  064%=      5-min Rain = 0
KBI1 130948Z 17009KT M01/M06 A3021 RMK A01 T10051064  RH  064%=      5-min Rain = 0
KBI1 130949Z 17009KT M01/M06 A3021 RMK A01 T10051064  RH  065%=      5-min Rain = 0
KBI1 130950Z 17010KT M01/M06 A3021 RMK A01 T10051063  RH  065%=      5-min Rain = 0
KBI1 130951Z 17009KT M01/M06 A3021 RMK A01 T10051064  RH  065%=      5-min Rain = 0
KBI1 130952Z 17009KT M01/M06 A3021 RMK A01 T10051063  RH  065%=      5-min Rain = 0
KBI1 130953Z 17009KT M01/M06 A3021 RMK A01 T10051063  RH  065%=      5-min Rain = 0
KBI1 130954Z 17009KT M01/M06 A3021 RMK A01 T10051063  RH  065%=      5-min Rain = 0
KBI1 130955Z 17008KT M01/M06 A3021 RMK A01 T10061063  RH  065%=      5-min Rain = 0
KBI1 130956Z 17008KT M01/M06 A3021 RMK A01 T10061062  RH  065%=      5-min Rain = 0
KBI1 130957Z 17008KT M01/M06 A3021 RMK A01 T10061062  RH  065%=      5-min Rain = 0
KBI1 130958Z 17008KT M01/M06 A3021 RMK A01 T10061062  RH  065%=      5-min Rain = 0
KBI1 130959Z 17007KT M01/M06 A3021 RMK A01 T10061062  RH  066%=      5-min Rain = 0
KBI1 131000Z 17007KT M01/M06 A3021 RMK A01 T10061062  RH  066%=      5-min Rain = 0
KBI1 131001Z 17007KT M01/M06 A3021 RMK A01 T10061061  RH  066%=      5-min Rain = 0
KBI1 131002Z 17006KT M01/M06 A3021 RMK A01 T10061061  RH  066%=      5-min Rain = 0
KBI1 131003Z 17006KT M01/M06 A302 RMK A01 T10061061  RH  067%=      5-min Rain = 0
KBI1 131004Z 17007KT M01/M06 A302 RMK A01 T10071061  RH  067%=      5-min Rain = 0
KBI1 131005Z 17006KT M01/M06 A302 RMK A01 T10061060  RH  067%=      5-min Rain = 0
KBI1 131006Z 17007KT M01/M06 A302 RMK A01 T10071060  RH  067%=      5-min Rain = 0
KBI1 131007Z 17006KT M01/M06 A302 RMK A01 T10071060  RH  068%=      5-min Rain = 0
KBI1 131008Z 17007KT M01/M06 A302 RMK A01 T10071059  RH  068%=      5-min Rain = 0
KBI1 131009Z 17007KT M01/M06 A302 RMK A01 T10071059  RH  068%=      5-min Rain = 0
KBI1 131010Z 18007KT M01/M06 A302 RMK A01 T10071059  RH  068%=      5-min Rain = 0
KBI1 131011Z 18007KT M01/M06 A302 RMK A01 T10071059  RH  068%=      5-min Rain = 0
KBI1 131012Z 18007KT M01/M06 A3021 RMK A01 T10071059  RH  068%=      5-min Rain = 0
KBI1 131013Z 18006KT M01/M06 A3021 RMK A01 T10071058  RH  068%=      5-min Rain = 0
KBI1 131014Z 18007KT M01/M06 A3021 RMK A01 T10071058  RH  068%=      5-min Rain = 0
KBI1 131015Z 18006KT M01/M06 A302 RMK A01 T10071058  RH  068%=      5-min Rain = 0
KBI1 131016Z 18007KT M01/M06 A302 RMK A01 T10071057  RH  069%=      5-min Rain = 0
KBI1 131017Z 18006KT M01/M06 A302 RMK A01 T10071057  RH  069%=      5-min Rain = 0
KBI1 131018Z 18005KT M01/M06 A302 RMK A01 T10071057  RH  069%=      5-min Rain = 0
KBI1 131019Z 18005KT M01/M06 A302 RMK A01 T10081057  RH  069%=      5-min Rain = 0
KBI1 131020Z 18006KT M01/M06 A302 RMK A01 T10081057  RH  069%=      5-min Rain = 0
KBI1 131021Z 18006KT M01/M06 A302 RMK A01 T10081057  RH  069%=      5-min Rain = 0
KBI1 131022Z 18007KT M01/M06 A302 RMK A01 T10081057  RH  069%=      5-min Rain = 0
KBI1 131023Z 18006KT M01/M06 A3019 RMK A01 T10081057  RH  069%=      5-min Rain = 0
KBI1 131024Z 18005KT M01/M06 A3019 RMK A01 T10081057  RH  069%=      5-min Rain = 0
KBI1 131025Z 18006KT M01/M06 A3019 RMK A01 T10081056  RH  070%=      5-min Rain = 0
KBI1 131026Z 17006KT M01/M06 A3019 RMK A01 T10071056  RH  070%=      5-min Rain = 0
KBI1 131027Z 18005KT M01/M06 A3019 RMK A01 T10071056  RH  070%=      5-min Rain = 0
KBI1 131028Z 17005KT M01/M06 A3019 RMK A01 T10071055  RH  070%=      5-min Rain = 0
KBI1 131029Z 18006KT M01/M06 A3019 RMK A01 T10071055  RH  070%=      5-min Rain = 0
KBI1 131030Z 17006KT M01/M06 A3019 RMK A01 T10071055  RH  070%=      5-min Rain = 0
KBI1 131031Z 17006KT M01/M06 A3019 RMK A01 T10071055  RH  070%=      5-min Rain = 0
KBI1 131032Z 17007KT M01/M05 A3019 RMK A01 T10061054  RH  070%=      5-min Rain = 0
KBI1 131033Z 17008KT M01/M05 A3019 RMK A01 T10061054  RH  070%=      5-min Rain = 0
KBI1 131034Z 17008KT M01/M05 A3018 RMK A01 T10061053  RH  070%=      5-min Rain = 0
KBI1 131035Z 17007KT M01/M05 A3018 RMK A01 T10051053  RH  070%=      5-min Rain = 0
KBI1 131036Z 17009KT M01/M05 A3018 RMK A01 T10051053  RH  070%=      5-min Rain = 0
KBI1 131037Z 17008KT M01/M05 A3018 RMK A01 T10051053  RH  070%=      5-min Rain = 0
KBI1 131038Z 17007KT M01/M05 A3018 RMK A01 T10051053  RH  070%=      5-min Rain = 0
KBI1 131039Z 18008KT M01/M05 A3018 RMK A01 T10051052  RH  070%=      5-min Rain = 0
KBI1 131040Z 18009KT M01/M05 A3018 RMK A01 T10051052  RH  070%=      5-min Rain = 0
KBI1 131041Z 18007KT M01/M05 A3018 RMK A01 T10051052  RH  070%=      5-min Rain = 0
KBI1 131042Z 18008KT M00/M05 A3018 RMK A01 T10041051  RH  070%=      5-min Rain = 0
KBI1 131043Z 18008KT M00/M05 A3018 RMK A01 T10041052  RH  070%=      5-min Rain = 0
KBI1 131044Z 18008KT M00/M05 A3018 RMK A01 T10041051  RH  070%=      5-min Rain = 0
KBI1 131045Z 18009KT M00/M05 A3018 RMK A01 T10041052  RH  070%=      5-min Rain = 0
KBI1 131046Z 18008KT M00/M05 A3018 RMK A01 T10041051  RH  070%=      5-min Rain = 0
KBI1 131047Z 18009KT M00/M05 A3018 RMK A01 T10041051  RH  070%=      5-min Rain = 0
KBI1 131048Z 18008KT M00/M05 A3018 RMK A01 T10031051  RH  070%=      5-min Rain = 0
KBI1 131049Z 17009KT M00/M05 A3018 RMK A01 T10031051  RH  070%=      5-min Rain = 0
KBI1 131050Z 17009KT M00/M05 A3018 RMK A01 T10021051  RH  070%=      5-min Rain = 0
KBI1 131051Z 17008KT M00/M05 A3018 RMK A01 T10021051  RH  070%=      5-min Rain = 0
KBI1 131052Z 17008KT M00/M05 A3018 RMK A01 T10021051  RH  069%=      5-min Rain = 0
KBI1 131053Z 17008KT M00/M05 A3018 RMK A01 T10021052  RH  069%=      5-min Rain = 0
KBI1 131054Z 17009KT M00/M05 A3018 RMK A01 T10021052  RH  069%=      5-min Rain = 0
KBI1 131055Z 18008KT M00/M05 A3018 RMK A01 T10021052  RH  069%=      5-min Rain = 0
KBI1 131056Z 18008KT M00/M05 A3018 RMK A01 T10021052  RH  069%=      5-min Rain = 0
KBI1 131057Z 18009KT M00/M05 A3018 RMK A01 T10021052  RH  069%=      5-min Rain = 0
KBI1 131058Z 18008KT M00/M05 A3018 RMK A01 T10011052  RH  069%=      5-min Rain = 0
KBI1 131059Z 17009KT M00/M05 A3018 RMK A01 T10021052  RH  069%=      5-min Rain = 0
KBI1 131100Z 17009KT M00/M05 A3018 RMK A01 T10021052  RH  069%=      5-min Rain = 0
KBI1 131101Z 17009KT M00/M05 A3018 RMK A01 T10021052  RH  069%=      5-min Rain = 0
KBI1 131102Z 17010KT M00/M05 A3018 RMK A01 T10011052  RH  068%=      5-min Rain = 0
KBI1 131103Z 17010KT M00/M05 A3018 RMK A01 T10011053  RH  068%=      5-min Rain = 0
KBI1 131104Z 17009KT M00/M05 A3018 RMK A01 T10011053  RH  068%=      5-min Rain = 0
KBI1 131105Z 18010KT 00/05 A3018 RMK A01 T00-00-52  RH  068%=      5-min Rain = 0
KBI1 131106Z 17010KT 00/05 A3018 RMK A01 T00-00-53  RH  068%=      5-min Rain = 0
KBI1 131107Z 17010KT 00/05 A3018 RMK A01 T00-00-52  RH  068%=      5-min Rain = 0
KBI1 131108Z 17010KT 00/05 A3018 RMK A01 T00000-52  RH  068%=      5-min Rain = 0
KBI1 131109Z 17009KT 00/05 A3018 RMK A01 T00000-53  RH  067%=      5-min Rain = 0
KBI1 131110Z 17009KT 00/M05 A3018 RMK A01 T00011053  RH  067%=      5-min Rain = 0
KBI1 131111Z 17010KT 00/M05 A3018 RMK A01 T00011053  RH  067%=      5-min Rain = 0
KBI1 131112Z 17009KT 00/M05 A3018 RMK A01 T00011052  RH  067%=      5-min Rain = 0
KBI1 131113Z 17009KT 00/M05 A3018 RMK A01 T00011053  RH  067%=      5-min Rain = 0
KBI1 131114Z 18009KT 00/M05 A3018 RMK A01 T00011053  RH  067%=      5-min Rain = 0
KBI1 131115Z 18008KT 00/M05 A3018 RMK A01 T00021053  RH  067%=      5-min Rain = 0
KBI1 131116Z 17008KT 00/M05 A3018 RMK A01 T00021052  RH  067%=      5-min Rain = 0
KBI1 131117Z 17008KT 00/M05 A3018 RMK A01 T00011052  RH  067%=      5-min Rain = 0
KBI1 131118Z 17008KT 00/M05 A3018 RMK A01 T00011052  RH  067%=      5-min Rain = 0
KBI1 131119Z 17007KT 00/M05 A3018 RMK A01 T00011053  RH  067%=      5-min Rain = 0
KBI1 131120Z 17007KT 00/M05 A3018 RMK A01 T00011053  RH  067%=      5-min Rain = 0
KBI1 131121Z 17010KT 00/M05 A3017 RMK A01 T00021053  RH  067%=      5-min Rain = 0
KBI1 131122Z 18008KT 00/M05 A3017 RMK A01 T00021054  RH  066%=      5-min Rain = 0
KBI1 131123Z 17009KT 00/M05 A3018 RMK A01 T00021054  RH  066%=      5-min Rain = 0
KBI1 131124Z 18008KT 00/M05 A3017 RMK A01 T00031053  RH  066%=      5-min Rain = 0
KBI1 131125Z 18009KT 00/M05 A3017 RMK A01 T00021054  RH  066%=      5-min Rain = 0
KBI1 131126Z 17009KT 00/M05 A3017 RMK A01 T00021054  RH  066%=      5-min Rain = 0
KBI1 131127Z 18009KT 00/M05 A3017 RMK A01 T00021054  RH  066%=      5-min Rain = 0
KBI1 131128Z 17009KT 00/M05 A3017 RMK A01 T00031054  RH  065%=      5-min Rain = 0
KBI1 131129Z 17009KT 00/M06 A3017 RMK A01 T00031055  RH  065%=      5-min Rain = 0
KBI1 131130Z 17009KT 00/M06 A3017 RMK A01 T00031055  RH  065%=      5-min Rain = 0
KBI1 131131Z 17011KT 00/M06 A3017 RMK A01 T00031055  RH  065%=      5-min Rain = 0
KBI1 131132Z 18011KT 00/M06 A3017 RMK A01 T00041057  RH  064%=      5-min Rain = 0
KBI1 131133Z 17010KT 00/M06 A3017 RMK A01 T00041058  RH  063%=      5-min Rain = 0
KBI1 131134Z 17010KT 01/M06 A3017 RMK A01 T00051058  RH  063%=      5-min Rain = 0
KBI1 131135Z 17010KT 01/M06 A3017 RMK A01 T00051059  RH  062%=      5-min Rain = 0
KBI1 131136Z 17009KT 01/M06 A3017 RMK A01 T00051059  RH  062%=      5-min Rain = 0
KBI1 131137Z 17009KT 01/M06 A3017 RMK A01 T00051059  RH  062%=      5-min Rain = 0
KBI1 131138Z 18008KT 01/M06 A3017 RMK A01 T00051059  RH  062%=      5-min Rain = 0
KBI1 131139Z 18008KT 01/M06 A3017 RMK A01 T00051059  RH  062%=      5-min Rain = 0
KBI1 131140Z 18008KT 01/M06 A3017 RMK A01 T00061058  RH  062%=      5-min Rain = 0
KBI1 131141Z 18010KT 01/M06 A3016 RMK A01 T00051060  RH  062%=      5-min Rain = 0
KBI1 131142Z 17010KT 01/M06 A3016 RMK A01 T00061061  RH  061%=      5-min Rain = 0
KBI1 131143Z 18009KT 01/M06 A3016 RMK A01 T00061063  RH  060%=      5-min Rain = 0
KBI1 131144Z 19010KT 01/M06 A3016 RMK A01 T00071063  RH  060%=      5-min Rain = 0
KBI1 131145Z 19011KT 01/M06 A3016 RMK A01 T00071064  RH  059%=      5-min Rain = 0
KBI1 131146Z 19010KT 01/M07 A3016 RMK A01 T00081065  RH  058%=      5-min Rain = 0
KBI1 131147Z 18008KT 01/M07 A3016 RMK A01 T00081065  RH  058%=      5-min Rain = 0
KBI1 131148Z 18009KT 01/M07 A3016 RMK A01 T00081066  RH  058%=      5-min Rain = 0
KBI1 131149Z 18008KT 01/M07 A3016 RMK A01 T00081065  RH  058%=      5-min Rain = 0
KBI1 131150Z 18007KT 01/M07 A3016 RMK A01 T00081067  RH  057%=      5-min Rain = 0
KBI1 131151Z 18007KT 01/M07 A3016 RMK A01 T00081067  RH  057%=      5-min Rain = 0
KBI1 131152Z 18007KT 01/M07 A3016 RMK A01 T00081066  RH  058%=      5-min Rain = 0
KBI1 131153Z 18007KT 01/M07 A3016 RMK A01 T00081066  RH  057%=      5-min Rain = 0
KBI1 131154Z 18007KT 01/M07 A3016 RMK A01 T00081067  RH  057%=      5-min Rain = 0
KBI1 131155Z 18008KT 01/M07 A3016 RMK A01 T00081068  RH  057%=      5-min Rain = 0
KBI1 131156Z 17008KT 01/M07 A3016 RMK A01 T00091069  RH  056%=      5-min Rain = 0
KBI1 131157Z 17010KT 01/M07 A3016 RMK A01 T00091070  RH  056%=      5-min Rain = 0
KBI1 131158Z 18009KT 01/M07 A3016 RMK A01 T00091070  RH  055%=      5-min Rain = 0
KBI1 131159Z 18010G15KT 01/M07 A3017 RMK A01 T00101069  RH  056%=      5-min Rain = 0
KBI1 131200Z 18012KT 01/M07 A3017 RMK A01 T00101070  RH  055%=      5-min Rain = 0
KBI1 131201Z 18010KT 01/M07 A3016 RMK A01 T00101070  RH  055%=      5-min Rain = 0
KBI1 131202Z 18011KT 01/M07 A3016 RMK A01 T00101070  RH  055%=      5-min Rain = 0
KBI1 131203Z 17011KT 01/M07 A3016 RMK A01 T00101070  RH  055%=      5-min Rain = 0
KBI1 131204Z 18011KT 01/M07 A3016 RMK A01 T00101070  RH  055%=      5-min Rain = 0
KBI1 131205Z 17011KT 01/M07 A3016 RMK A01 T00101070  RH  055%=      5-min Rain = 0
KBI1 131206Z 18011KT 01/M07 A3016 RMK A01 T00101070  RH  055%=      5-min Rain = 0
KBI1 131207Z 18012KT 01/M07 A3016 RMK A01 T00101071  RH  055%=      5-min Rain = 0
KBI1 131208Z 17012KT 01/M07 A3016 RMK A01 T00101071  RH  055%=      5-min Rain = 0
KBI1 131209Z 17012G17KT 01/M07 A3016 RMK A01 T00111070  RH  055%=      5-min Rain = 0
KBI1 131210Z 18013G18KT 01/M07 A3016 RMK A01 T00111071  RH  055%=      5-min Rain = 0
KBI1 131211Z 17011KT 01/M07 A3016 RMK A01 T00101071  RH  054%=      5-min Rain = 0
KBI1 131212Z 18012G17KT 01/M07 A3016 RMK A01 T00111070  RH  055%=      5-min Rain = 0
KBI1 131213Z 17014KT 01/M07 A3016 RMK A01 T00101071  RH  055%=      5-min Rain = 0
KBI1 131214Z 18013KT 01/M07 A3016 RMK A01 T00101073  RH  054%=      5-min Rain = 0
KBI1 131215Z 18013KT 01/M07 A3016 RMK A01 T00111073  RH  054%=      5-min Rain = 0
KBI1 131216Z 17010KT 01/M07 A3016 RMK A01 T00111072  RH  054%=      5-min Rain = 0
KBI1 131217Z 18012KT 01/M07 A3016 RMK A01 T00111071  RH  054%=      5-min Rain = 0
KBI1 131218Z 17012KT 01/M07 A3016 RMK A01 T00111071  RH  054%=      5-min Rain = 0
KBI1 131219Z 18013KT 01/M07 A3016 RMK A01 T00111071  RH  054%=      5-min Rain = 0
KBI1 131220Z 18013KT 01/M07 A3016 RMK A01 T00101071  RH  054%=      5-min Rain = 0
KBI1 131221Z 18014KT 01/M07 A3016 RMK A01 T00101072  RH  054%=      5-min Rain = 0
KBI1 131222Z 18011KT 01/M07 A3016 RMK A01 T00101072  RH  054%=      5-min Rain = 0
KBI1 131223Z 18010KT 01/M07 A3016 RMK A01 T00111072  RH  054%=      5-min Rain = 0
KBI1 131224Z 18013KT 01/M07 A3016 RMK A01 T00101071  RH  055%=      5-min Rain = 0
KBI1 131225Z 19013KT 01/M07 A3016 RMK A01 T00111073  RH  054%=      5-min Rain = 0
KBI1 131226Z 18011G16KT 01/M07 A3016 RMK A01 T00111073  RH  054%=      5-min Rain = 0
KBI1 131227Z 17012KT 01/M07 A3016 RMK A01 T00111072  RH  054%=      5-min Rain = 0
KBI1 131228Z 18010KT 01/M07 A3016 RMK A01 T00111071  RH  054%=      5-min Rain = 0
KBI1 131229Z 18013KT 01/M07 A3016 RMK A01 T00111072  RH  054%=      5-min Rain = 0
KBI1 131230Z 18013KT 01/M07 A3016 RMK A01 T00111072  RH  054%=      5-min Rain = 0
KBI1 131231Z 18014KT 01/M07 A3016 RMK A01 T00101072  RH  054%=      5-min Rain = 0
KBI1 131232Z 18011KT 01/M07 A3016 RMK A01 T00101073  RH  054%=      5-min Rain = 0
KBI1 131233Z 18013KT 01/M07 A3016 RMK A01 T00101073  RH  054%=      5-min Rain = 0
KBI1 131234Z 18011KT 01/M07 A3016 RMK A01 T00111073  RH  054%=      5-min Rain = 0
KBI1 131235Z 18012KT 01/M07 A3016 RMK A01 T00111072  RH  054%=      5-min Rain = 0
KBI1 131236Z 18012KT 01/M07 A3016 RMK A01 T00101072  RH  054%=      5-min Rain = 0
KBI1 131237Z 18010KT 01/M07 A3016 RMK A01 T00111072  RH  054%=      5-min Rain = 0
KBI1 131238Z 18013KT 01/M07 A3016 RMK A01 T00101072  RH  054%=      5-min Rain = 0
KBI1 131239Z 18012KT 01/M07 A3016 RMK A01 T00101072  RH  054%=      5-min Rain = 0
KBI1 131240Z 17011KT 01/M07 A3016 RMK A01 T00101072  RH  054%=      5-min Rain = 0
KBI1 131241Z 18011KT 01/M07 A3016 RMK A01 T00111071  RH  054%=      5-min Rain = 0
KBI1 131242Z 18011KT 01/M07 A3015 RMK A01 T00101072  RH  054%=      5-min Rain = 0
KBI1 131243Z 17011KT 01/M07 A3015 RMK A01 T00101072  RH  055%=      5-min Rain = 0
KBI1 131244Z 17012KT 01/M07 A3015 RMK A01 T00101071  RH  055%=      5-min Rain = 0
KBI1 131245Z 18010KT 01/M07 A3015 RMK A01 T00101071  RH  055%=      5-min Rain = 0
KBI1 131246Z 18012KT 01/M07 A3015 RMK A01 T00101070  RH  055%=      5-min Rain = 0
KBI1 131247Z 18013KT 01/M07 A3015 RMK A01 T00101072  RH  054%=      5-min Rain = 0
KBI1 131248Z 18013KT 01/M07 A3015 RMK A01 T00101073  RH  054%=      5-min Rain = 0
KBI1 131249Z 18013G18KT 01/M07 A3015 RMK A01 T00101072  RH  054%=      5-min Rain = 0
KBI1 131250Z 18012KT 01/M07 A3014 RMK A01 T00101072  RH  054%=      5-min Rain = 0
KBI1 131251Z 18013KT 01/M07 A3014 RMK A01 T00101072  RH  054%=      5-min Rain = 0
KBI1 131252Z 18012KT 01/M07 A3015 RMK A01 T00101072  RH  054%=      5-min Rain = 0
KBI1 131253Z 18009KT 01/M07 A3015 RMK A01 T00101071  RH  055%=      5-min Rain = 0
KBI1 131254Z 18012KT 01/M07 A3014 RMK A01 T00101071  RH  055%=      5-min Rain = 0
KBI1 131255Z 19011KT 01/M07 A3014 RMK A01 T00101072  RH  054%=      5-min Rain = 0
KBI1 131256Z 18013KT 01/M07 A3015 RMK A01 T00101072  RH  054%=      5-min Rain = 0
KBI1 131257Z 18012KT 01/M07 A3015 RMK A01 T00101072  RH  054%=      5-min Rain = 0
KBI1 131258Z 18012KT 01/M07 A3015 RMK A01 T00101072  RH  055%=      5-min Rain = 0
KBI1 131259Z 17011KT 01/M07 A3015 RMK A01 T00091072  RH  055%=      5-min Rain = 0
KBI1 131300Z 18012KT 01/M07 A3015 RMK A01 T00091072  RH  055%=      5-min Rain = 0
KBI1 131301Z 18012KT 01/M07 A3014 RMK A01 T00091071  RH  055%=      5-min Rain = 0
KBI1 131302Z 18011KT 01/M07 A3014 RMK A01 T00091072  RH  055%=      5-min Rain = 0
KBI1 131303Z 17014KT 01/M07 A3014 RMK A01 T00101072  RH  055%=      5-min Rain = 0
KBI1 131304Z 18011KT 01/M07 A3014 RMK A01 T00091072  RH  054%=      5-min Rain = 0
KBI1 131305Z 18011KT 01/M07 A3014 RMK A01 T00101071  RH  055%=      5-min Rain = 0
KBI1 131306Z 18010KT 01/M07 A3014 RMK A01 T00101071  RH  055%=      5-min Rain = 0
KBI1 131307Z 18011KT 01/M07 A3014 RMK A01 T00091071  RH  055%=      5-min Rain = 0
KBI1 131308Z 18012KT 01/M07 A3014 RMK A01 T00091070  RH  055%=      5-min Rain = 0
KBI1 131309Z 18013KT 01/M07 A3014 RMK A01 T00091071  RH  055%=      5-min Rain = 0
KBI1 131310Z 18012KT 01/M07 A3014 RMK A01 T00091070  RH  055%=      5-min Rain = 0
KBI1 131311Z 18012G17KT 01/M07 A3014 RMK A01 T00091071  RH  055%=      5-min Rain = 0
KBI1 131312Z 17013KT 01/M07 A3014 RMK A01 T00091071  RH  055%=      5-min Rain = 0
KBI1 131313Z 18015KT 01/M07 A3014 RMK A01 T00091071  RH  055%=      5-min Rain = 0
KBI1 131314Z 18012KT 01/M07 A3014 RMK A01 T00101071  RH  055%=      5-min Rain = 0
KBI1 131315Z 18012G18KT 01/M07 A3014 RMK A01 T00101071  RH  055%=      5-min Rain = 0
KBI1 131316Z 18013KT 01/M07 A3014 RMK A01 T00091071  RH  055%=      5-min Rain = 0
KBI1 131317Z 18015KT 01/M07 A3014 RMK A01 T00091071  RH  055%=      5-min Rain = 0
KBI1 131318Z 18012KT 01/M07 A3014 RMK A01 T00101071  RH  055%=      5-min Rain = 0
KBI1 131319Z 18012G18KT 01/M07 A3014 RMK A01 T00101071  RH  055%=      5-min Rain = 0
KBI1 131320Z 19011KT 01/M07 A3014 RMK A01 T00101070  RH  055%=      5-min Rain = 0
KBI1 131321Z 18014KT 01/M07 A3014 RMK A01 T00091070  RH  055%=      5-min Rain = 0
KBI1 131322Z 18012KT 01/M07 A3014 RMK A01 T00091070  RH  055%=      5-min Rain = 0
KBI1 131323Z 18013KT 01/M07 A3014 RMK A01 T00091070  RH  055%=      5-min Rain = 0
KBI1 131324Z 18014KT 01/M07 A3014 RMK A01 T00091071  RH  055%=      5-min Rain = 0
KBI1 131325Z 18013KT 01/M07 A3013 RMK A01 T00091071  RH  055%=      5-min Rain = 0
KBI1 131326Z 18013G18KT 01/M07 A3013 RMK A01 T00091071  RH  055%=      5-min Rain = 0
KBI1 131327Z 17014KT 01/M07 A3013 RMK A01 T00091070  RH  055%=      5-min Rain = 0
KBI1 131328Z 18014KT 01/M07 A3013 RMK A01 T00101070  RH  055%=      5-min Rain = 0
KBI1 131329Z 18015G20KT 01/M07 A3013 RMK A01 T00101070  RH  055%=      5-min Rain = 0
KBI1 131330Z 18015KT 01/M07 A3013 RMK A01 T00101070  RH  055%=      5-min Rain = 0
KBI1 131331Z 18016KT 01/M07 A3013 RMK A01 T00091070  RH  055%=      5-min Rain = 0
KBI1 131332Z 18015KT 01/M07 A3013 RMK A01 T00101070  RH  055%=      5-min Rain = 0
KBI1 131333Z 18014G19KT 01/M07 A3013 RMK A01 T00101070  RH  055%=      5-min Rain = 0
KBI1 131334Z 18013KT 01/M07 A3013 RMK A01 T00101070  RH  055%=      5-min Rain = 0
KBI1 131335Z 18015KT 01/M07 A3013 RMK A01 T00101070  RH  055%=      5-min Rain = 0
KBI1 131336Z 18012KT 01/M07 A3013 RMK A01 T00101071  RH  055%=      5-min Rain = 0
KBI1 131337Z 17013KT 01/M07 A3013 RMK A01 T00101071  RH  055%=      5-min Rain = 0
KBI1 131338Z 18011KT 01/M07 A3013 RMK A01 T00101069  RH  055%=      5-min Rain = 0
KBI1 131339Z 18015KT 01/M07 A3013 RMK A01 T00101069  RH  056%=      5-min Rain = 0
KBI1 131340Z 18016KT 01/M07 A3013 RMK A01 T00101070  RH  055%=      5-min Rain = 0
KBI1 131341Z 18015KT 01/M07 A3013 RMK A01 T00111070  RH  055%=      5-min Rain = 0
KBI1 131342Z 18016KT 01/M07 A3013 RMK A01 T00101071  RH  055%=      5-min Rain = 0
KBI1 131343Z 18016KT 01/M07 A3013 RMK A01 T00111071  RH  054%=      5-min Rain = 0
KBI1 131344Z 18015KT 01/M07 A3013 RMK A01 T00111071  RH  054%=      5-min Rain = 0
KBI1 131345Z 18017KT 01/M07 A3012 RMK A01 T00111070  RH  055%=      5-min Rain = 0
KBI1 131346Z 18015KT 01/M07 A3012 RMK A01 T00111070  RH  055%=      5-min Rain = 0
KBI1 131347Z 17016KT 01/M07 A3012 RMK A01 T00111069  RH  055%=      5-min Rain = 0
KBI1 131348Z 18017KT 01/M07 A3012 RMK A01 T00111070  RH  055%=      5-min Rain = 0
KBI1 131349Z 18014KT 01/M07 A3012 RMK A01 T00111070  RH  055%=      5-min Rain = 0
KBI1 131350Z 18017KT 01/M07 A3012 RMK A01 T00111069  RH  055%=      5-min Rain = 0
KBI1 131351Z 18018KT 01/M07 A3012 RMK A01 T00111070  RH  055%=      5-min Rain = 0
KBI1 131352Z 18016G23KT 01/M07 A3012 RMK A01 T00111070  RH  055%=      5-min Rain = 0
KBI1 131353Z 18016KT 01/M07 A3012 RMK A01 T00111070  RH  054%=      5-min Rain = 0
KBI1 131354Z 18015G21KT 01/M07 A3011 RMK A01 T00111070  RH  054%=      5-min Rain = 0
KBI1 131355Z 17015KT 01/M07 A3012 RMK A01 T00111070  RH  054%=      5-min Rain = 0
KBI1 131356Z 18015G20KT 01/M07 A3012 RMK A01 T00111070  RH  055%=      5-min Rain = 0
KBI1 131357Z 18014G19KT 01/M07 A3012 RMK A01 T00121070  RH  055%=      5-min Rain = 0
KBI1 131358Z 18017KT 01/M07 A3012 RMK A01 T00121070  RH  054%=      5-min Rain = 0
KBI1 131359Z 18015G21KT 01/M07 A3012 RMK A01 T00121070  RH  054%=      5-min Rain = 0
KBI1 131400Z 18019KT 01/M07 A3012 RMK A01 T00121070  RH  054%=      5-min Rain = 0
KBI1 131401Z 18015KT 01/M07 A3012 RMK A01 T00121070  RH  054%=      5-min Rain = 0
KBI1 131402Z 17014KT 01/M07 A3012 RMK A01 T00121070  RH  054%=      5-min Rain = 0
KBI1 131403Z 18015KT 01/M07 A3012 RMK A01 T00121069  RH  054%=      5-min Rain = 0
KBI1 131404Z 18015G20KT 01/M07 A3012 RMK A01 T00121069  RH  055%=      5-min Rain = 0
KBI1 131405Z 18015KT 01/M07 A3013 RMK A01 T00131069  RH  055%=      5-min Rain = 0
KBI1 131406Z 19017G22KT 01/M07 A3013 RMK A01 T00131069  RH  054%=      5-min Rain = 0
KBI1 131407Z 18015G21KT 01/M07 A3013 RMK A01 T00131070  RH  054%=      5-min Rain = 0
KBI1 131408Z 18014KT 01/M07 A3013 RMK A01 T00131070  RH  054%=      5-min Rain = 0
KBI1 131409Z 18014G19KT 01/M07 A3013 RMK A01 T00131069  RH  054%=      5-min Rain = 0
KBI1 131410Z 18014KT 01/M07 A3013 RMK A01 T00131069  RH  054%=      5-min Rain = 0
KBI1 131411Z 19014KT 01/M07 A3013 RMK A01 T00131069  RH  054%=      5-min Rain = 0
KBI1 131412Z 19015G21KT 01/M07 A3013 RMK A01 T00141070  RH  054%=      5-min Rain = 0
KBI1 131413Z 19011KT 01/M07 A3013 RMK A01 T00141070  RH  054%=      5-min Rain = 0
KBI1 131414Z 19014KT 01/M07 A3013 RMK A01 T00141069  RH  054%=      5-min Rain = 0
KBI1 131415Z 19014KT 01/M07 A3013 RMK A01 T00141069  RH  054%=      5-min Rain = 0
KBI1 131416Z 18014KT 01/M07 A3012 RMK A01 T00141069  RH  054%=      5-min Rain = 0
KBI1 131417Z 19014KT 02/M07 A3012 RMK A01 T00151069  RH  054%=      5-min Rain = 0
KBI1 131418Z 19016KT 02/M07 A3012 RMK A01 T00151069  RH  054%=      5-min Rain = 0
KBI1 131419Z 19016G21KT 02/M07 A3013 RMK A01 T00151069  RH  053%=      5-min Rain = 0
KBI1 131420Z 19015KT 02/M07 A3013 RMK A01 T00151069  RH  053%=      5-min Rain = 0
KBI1 131421Z 19011KT 02/M07 A3013 RMK A01 T00151069  RH  054%=      5-min Rain = 0
KBI1 131422Z 19014KT 02/M07 A3013 RMK A01 T00161067  RH  054%=      5-min Rain = 0
KBI1 131423Z 19013KT 02/M07 A3013 RMK A01 T00161068  RH  054%=      5-min Rain = 0
KBI1 131424Z 19013KT 02/M07 A3013 RMK A01 T00161067  RH  054%=      5-min Rain = 0
KBI1 131425Z 19013KT 02/M07 A3013 RMK A01 T00171067  RH  054%=      5-min Rain = 0
KBI1 131426Z 19014KT 02/M07 A3013 RMK A01 T00171067  RH  054%=      5-min Rain = 0
KBI1 131427Z 18015G21KT 02/M07 A3013 RMK A01 T00171068  RH  053%=      5-min Rain = 0
KBI1 131428Z 19013G19KT 02/M07 A3013 RMK A01 T00171068  RH  054%=      5-min Rain = 0
KBI1 131429Z 19018KT 02/M07 A3013 RMK A01 T00171066  RH  054%=      5-min Rain = 0
KBI1 131430Z 19017KT 02/M07 A3013 RMK A01 T00181068  RH  053%=      5-min Rain = 0
KBI1 131431Z 19016KT 02/M07 A3013 RMK A01 T00181068  RH  053%=      5-min Rain = 0
KBI1 131432Z 19015KT 02/M07 A3013 RMK A01 T00181067  RH  053%=      5-min Rain = 0
KBI1 131433Z 19018KT 02/M07 A3013 RMK A01 T00181066  RH  053%=      5-min Rain = 0
KBI1 131434Z 19015KT 02/M07 A3013 RMK A01 T00181067  RH  053%=      5-min Rain = 0
KBI1 131435Z 19015KT 02/M07 A3013 RMK A01 T00191066  RH  053%=      5-min Rain = 0
KBI1 131436Z 18016G21KT 02/M07 A3013 RMK A01 T00191066  RH  053%=      5-min Rain = 0
KBI1 131437Z 18019KT 02/M07 A3013 RMK A01 T00191067  RH  053%=      5-min Rain = 0
KBI1 131438Z 18017KT 02/M07 A3013 RMK A01 T00191067  RH  053%=      5-min Rain = 0
KBI1 131439Z 18019KT 02/M07 A3013 RMK A01 T00191067  RH  053%=      5-min Rain = 0
KBI1 131440Z 19017G22KT 02/M07 A3013 RMK A01 T00201067  RH  053%=      5-min Rain = 0
KBI1 131441Z 19017KT 02/M07 A3013 RMK A01 T00201067  RH  053%=      5-min Rain = 0
KBI1 131442Z 19017KT 02/M07 A3013 RMK A01 T00201066  RH  053%=      5-min Rain = 0
KBI1 131443Z 19015KT 02/M07 A3013 RMK A01 T00201065  RH  053%=      5-min Rain = 0
KBI1 131444Z 19020KT 02/M07 A3013 RMK A01 T00211066  RH  053%=      5-min Rain = 0
KBI1 131445Z 19018KT 02/M07 A3013 RMK A01 T00211067  RH  052%=      5-min Rain = 0
KBI1 131446Z 19019G24KT 02/M07 A3013 RMK A01 T00201067  RH  052%=      5-min Rain = 0
KBI1 131447Z 19020KT 02/M07 A3013 RMK A01 T00211067  RH  052%=      5-min Rain = 0
KBI1 131448Z 19022KT 02/M07 A3013 RMK A01 T00211067  RH  052%=      5-min Rain = 0
KBI1 131449Z 19017KT 02/M07 A3013 RMK A01 T00221067  RH  052%=      5-min Rain = 0
KBI1 131450Z 19018KT 02/M07 A3013 RMK A01 T00221067  RH  052%=      5-min Rain = 0
KBI1 131451Z 18016KT 02/M07 A3013 RMK A01 T00221067  RH  052%=      5-min Rain = 0
KBI1 131452Z 18019KT 02/M07 A3012 RMK A01 T00231066  RH  052%=      5-min Rain = 0
KBI1 131453Z 18016KT 02/M07 A3012 RMK A01 T00241066  RH  052%=      5-min Rain = 0
KBI1 131454Z 19016KT 02/M07 A3013 RMK A01 T00241066  RH  051%=      5-min Rain = 0
KBI1 131455Z 18018KT 02/M07 A3013 RMK A01 T00241066  RH  051%=      5-min Rain = 0
KBI1 131456Z 19018KT 03/M07 A3013 RMK A01 T00251067  RH  051%=      5-min Rain = 0
KBI1 131457Z 18015KT 03/M07 A3013 RMK A01 T00251067  RH  051%=      5-min Rain = 0
KBI1 131458Z 18013G19KT 03/M06 A3013 RMK A01 T00261064  RH  052%=      5-min Rain = 0
KBI1 131459Z 19016G21KT 03/M06 A3013 RMK A01 T00271063  RH  052%=      5-min Rain = 0
KBI1 131500Z 19020G25KT 03/M07 A3013 RMK A01 T00271065  RH  051%=      5-min Rain = 0
KBI1 131501Z 18020KT 03/M07 A3013 RMK A01 T00271067  RH  050%=      5-min Rain = 0
KBI1 131502Z 19017KT 03/M07 A3013 RMK A01 T00261067  RH  050%=      5-min Rain = 0
KBI1 131503Z 18018KT 03/M07 A3013 RMK A01 T00261066  RH  050%=      5-min Rain = 0
KBI1 131504Z 18018G23KT 03/M07 A3013 RMK A01 T00261066  RH  051%=      5-min Rain = 0
KBI1 131505Z 18018G24KT 03/M06 A3013 RMK A01 T00271064  RH  051%=      5-min Rain = 0
KBI1 131506Z 19023KT 03/M07 A3013 RMK A01 T00271065  RH  050%=      5-min Rain = 0
KBI1 131507Z 19021G27KT 03/M07 A3013 RMK A01 T00271067  RH  050%=      5-min Rain = 0
KBI1 131508Z 18018G23KT 03/M07 A3013 RMK A01 T00271065  RH  050%=      5-min Rain = 0
KBI1 131509Z 18021G26KT 03/M06 A3013 RMK A01 T00281064  RH  051%=      5-min Rain = 0
KBI1 131510Z 19023KT 03/M07 A3013 RMK A01 T00291066  RH  050%=      5-min Rain = 0
KBI1 131511Z 19019KT 03/M07 A3013 RMK A01 T00291066  RH  050%=      5-min Rain = 0
KBI1 131512Z 19020KT 03/M07 A3013 RMK A01 T00301065  RH  050%=      5-min Rain = 0
KBI1 131513Z 18019KT 03/M07 A3013 RMK A01 T00301065  RH  050%=      5-min Rain = 0
KBI1 131514Z 19021KT 03/M06 A3012 RMK A01 T00311064  RH  050%=      5-min Rain = 0
KBI1 131515Z 19021KT 03/M06 A3012 RMK A01 T00311064  RH  050%=      5-min Rain = 0
KBI1 131516Z 19019G24KT 03/M06 A3012 RMK A01 T00311063  RH  050%=      5-min Rain = 0
KBI1 131517Z 19017KT 03/M06 A3013 RMK A01 T00311062  RH  050%=      5-min Rain = 0
KBI1 131518Z 19018KT 03/M06 A3013 RMK A01 T00331059  RH  051%=      5-min Rain = 0
KBI1 131519Z 18018G23KT 03/M06 A3012 RMK A01 T00341060  RH  050%=      5-min Rain = 0
KBI1 131520Z 18020KT 03/M06 A3012 RMK A01 T00341061  RH  050%=      5-min Rain = 0
KBI1 131521Z 18020KT 03/M06 A3012 RMK A01 T00331062  RH  050%=      5-min Rain = 0
KBI1 131522Z 18019KT 03/M06 A3012 RMK A01 T00321062  RH  050%=      5-min Rain = 0
KBI1 131523Z 19020KT 03/M06 A3012 RMK A01 T00331062  RH  050%=      5-min Rain = 0
KBI1 131524Z 18022KT 03/M06 A3012 RMK A01 T00341061  RH  050%=      5-min Rain = 0
KBI1 131525Z 18021G26KT 03/M06 A3012 RMK A01 T00341062  RH  050%=      5-min Rain = 0
KBI1 131526Z 19018KT 03/M06 A3012 RMK A01 T00331062  RH  050%=      5-min Rain = 0
KBI1 131527Z 19020G25KT 03/M06 A3012 RMK A01 T00341060  RH  050%=      5-min Rain = 0
KBI1 131528Z 19017G22KT 03/M06 A3012 RMK A01 T00341061  RH  050%=      5-min Rain = 0
KBI1 131529Z 19014KT 04/M06 A3012 RMK A01 T00351060  RH  050%=      5-min Rain = 0
KBI1 131530Z 18015KT 04/M06 A3012 RMK A01 T00371057  RH  050%=      5-min Rain = 0
KBI1 131531Z 19017G22KT 04/M06 A3012 RMK A01 T00381059  RH  049%=      5-min Rain = 0
KBI1 131532Z 18018G23KT 04/M06 A3012 RMK A01 T00381059  RH  049%=      5-min Rain = 0
KBI1 131533Z 19017KT 04/M06 A3012 RMK A01 T00381059  RH  049%=      5-min Rain = 0
KBI1 131534Z 19017G24KT 04/M06 A3012 RMK A01 T00391059  RH  049%=      5-min Rain = 0
KBI1 131535Z 18019G24KT 04/M06 A3012 RMK A01 T00401060  RH  048%=      5-min Rain = 0
KBI1 131536Z 19019KT 04/M06 A3012 RMK A01 T00401060  RH  048%=      5-min Rain = 0
KBI1 131537Z 19018G23KT 04/M06 A3012 RMK A01 T00401059  RH  048%=      5-min Rain = 0
KBI1 131538Z 19017G23KT 04/M06 A3012 RMK A01 T00401060  RH  048%=      5-min Rain = 0
KBI1 131539Z 18016G22KT 04/M06 A3012 RMK A01 T00411058  RH  048%=      5-min Rain = 0
KBI1 131540Z 18017KT 04/M06 A3012 RMK A01 T00431058  RH  048%=      5-min Rain = 0
KBI1 131541Z 18020KT 04/M06 A3012 RMK A01 T00431058  RH  048%=      5-min Rain = 0
KBI1 131542Z 19018G23KT 04/M06 A3012 RMK A01 T00431058  RH  048%=      5-min Rain = 0
KBI1 131543Z 19021KT 04/M06 A3012 RMK A01 T00431058  RH  048%=      5-min Rain = 0
KBI1 131544Z 19020G25KT 04/M06 A3012 RMK A01 T00431060  RH  047%=      5-min Rain = 0
KBI1 131545Z 19019KT 04/M06 A3012 RMK A01 T00441059  RH  047%=      5-min Rain = 0
KBI1 131546Z 19019KT 04/M06 A3012 RMK A01 T00441059  RH  047%=      5-min Rain = 0
KBI1 131547Z 19019KT 04/M06 A3012 RMK A01 T00441058  RH  047%=      5-min Rain = 0
KBI1 131548Z 19020KT 05/M06 A3012 RMK A01 T00451058  RH  047%=      5-min Rain = 0
KBI1 131549Z 19020KT 05/M06 A3012 RMK A01 T00451058  RH  047%=      5-min Rain = 0
KBI1 131550Z 19021KT 05/M06 A3012 RMK A01 T00451058  RH  047%=      5-min Rain = 0
KBI1 131551Z 19020G25KT 05/M06 A3012 RMK A01 T00451058  RH  047%=      5-min Rain = 0
KBI1 131552Z 19019KT 05/M06 A3012 RMK A01 T00461057  RH  047%=      5-min Rain = 0
KBI1 131553Z 19020G25KT 05/M06 A3012 RMK A01 T00481055  RH  047%=      5-min Rain = 0
KBI1 131554Z 19020G25KT 05/M06 A3012 RMK A01 T00491055  RH  047%=      5-min Rain = 0
KBI1 131555Z 19018G24KT 05/M06 A3012 RMK A01 T00491056  RH  047%=      5-min Rain = 0
KBI1 131556Z 18017G23KT 05/M06 A3012 RMK A01 T00481055  RH  047%=      5-min Rain = 0
KBI1 131557Z 19020KT 05/M05 A3012 RMK A01 T00481054  RH  048%=      5-min Rain = 0
KBI1 131558Z 19017KT 05/M05 A3012 RMK A01 T00471054  RH  048%=      5-min Rain = 0
KBI1 131559Z 18017G22KT 05/M05 A3012 RMK A01 T00471053  RH  049%=      5-min Rain = 0
KBI1 131600Z 19019KT 05/M05 A3011 RMK A01 T00471051  RH  049%=      5-min Rain = 0
KBI1 131601Z 19020G25KT 05/M05 A3011 RMK A01 T00471049  RH  050%=      5-min Rain = 0
KBI1 131602Z 18018KT 05/M05 A3011 RMK A01 T00461048  RH  050%=      5-min Rain = 0
KBI1 131603Z 18019KT 05/M05 A3011 RMK A01 T00451047  RH  051%=      5-min Rain = 0
KBI1 131604Z 18017KT 05/M05 A3011 RMK A01 T00461046  RH  052%=      5-min Rain = 0
KBI1 131605Z 17016G21KT 05/M04 A3011 RMK A01 T00471044  RH  052%=      5-min Rain = 0
KBI1 131606Z 18015G20KT 05/M04 A3011 RMK A01 T00481043  RH  052%=      5-min Rain = 0
KBI1 131607Z 18013G19KT 05/M04 A3011 RMK A01 T00491040  RH  052%=      5-min Rain = 0
KBI1 131608Z 18016G21KT 05/M04 A3011 RMK A01 T00501040  RH  052%=      5-min Rain = 0
KBI1 131609Z 18015KT 05/M04 A3011 RMK A01 T00511039  RH  052%=      5-min Rain = 0
KBI1 131610Z 19015G21KT 05/M04 A3011 RMK A01 T00511038  RH  052%=      5-min Rain = 0
KBI1 131611Z 19013G18KT 05/M04 A3011 RMK A01 T00511038  RH  052%=      5-min Rain = 0
KBI1 131612Z 18018KT 05/M04 A3011 RMK A01 T00521036  RH  053%=      5-min Rain = 0
KBI1 131613Z 18016KT 05/M04 A3012 RMK A01 T00501036  RH  054%=      5-min Rain = 0
KBI1 131614Z 18014G19KT 05/M03 A3012 RMK A01 T00501034  RH  055%=      5-min Rain = 0
KBI1 131615Z 19017KT 05/M03 A3012 RMK A01 T00511033  RH  054%=      5-min Rain = 0
KBI1 131616Z 18015KT 05/M03 A3011 RMK A01 T00501034  RH  054%=      5-min Rain = 0
KBI1 131617Z 18017KT 05/M03 A3011 RMK A01 T00491034  RH  055%=      5-min Rain = 0
KBI1 131618Z 18016KT 05/M03 A3011 RMK A01 T00491033  RH  055%=      5-min Rain = 0
KBI1 131619Z 17015KT 05/M03 A3012 RMK A01 T00481031  RH  056%=      5-min Rain = 0
KBI1 131620Z 17014KT 05/M03 A3012 RMK A01 T00491029  RH  057%=      5-min Rain = 0
KBI1 131621Z 18020KT 05/M03 A3011 RMK A01 T00501029  RH  057%=      5-min Rain = 0
KBI1 131622Z 18019KT 05/M03 A3012 RMK A01 T00491029  RH  057%=      5-min Rain = 0
KBI1 131623Z 18017G22KT 05/M03 A3012 RMK A01 T00501028  RH  057%=      5-min Rain = 0
KBI1 131624Z 18018G23KT 05/M03 A3011 RMK A01 T00491028  RH  057%=      5-min Rain = 0
KBI1 131625Z 18019KT 05/M03 A3011 RMK A01 T00501027  RH  058%=      5-min Rain = 0
KBI1 131626Z 19018G23KT 05/M03 A3011 RMK A01 T00501027  RH  058%=      5-min Rain = 0
KBI1 131627Z 19019G27KT 05/M03 A3011 RMK A01 T00511026  RH  058%=      5-min Rain = 0
KBI1 131628Z 18020G25KT 05/M03 A3011 RMK A01 T00501026  RH  058%=      5-min Rain = 0
KBI1 131629Z 17022KT 05/M03 A3011 RMK A01 T00491026  RH  058%=      5-min Rain = 0
KBI1 131630Z 17020G25KT 05/M03 A301 RMK A01 T00481026  RH  059%=      5-min Rain = 0
KBI1 131631Z 18020KT 05/M03 A301 RMK A01 T00471026  RH  059%=      5-min Rain = 0
KBI1 131632Z 17022G28KT 05/M03 A301 RMK A01 T00471026  RH  059%=      5-min Rain = 0
KBI1 131633Z 17022KT 05/M03 A301 RMK A01 T00461026  RH  060%=      5-min Rain = 0
KBI1 131634Z 18021KT 05/M03 A301 RMK A01 T00461025  RH  060%=      5-min Rain = 0
KBI1 131635Z 18020G25KT 05/M03 A301 RMK A01 T00461025  RH  060%=      5-min Rain = 0
KBI1 131636Z 17020G26KT 05/M03 A301 RMK A01 T00461025  RH  060%=      5-min Rain = 0
KBI1 131637Z 18016KT 05/M02 A301 RMK A01 T00461024  RH  060%=      5-min Rain = 0
KBI1 131638Z 18018G23KT 05/M02 A301 RMK A01 T00471023  RH  060%=      5-min Rain = 0
KBI1 131639Z 18018KT 05/M02 A301 RMK A01 T00481023  RH  060%=      5-min Rain = 0
KBI1 131640Z 18016KT 05/M02 A301 RMK A01 T00491022  RH  060%=      5-min Rain = 0
KBI1 131641Z 19015KT 05/M02 A301 RMK A01 T00501022  RH  060%=      5-min Rain = 0
KBI1 131642Z 18017KT 05/M02 A301 RMK A01 T00501023  RH  059%=      5-min Rain = 0
KBI1 131643Z 18015KT 05/M02 A301 RMK A01 T00501024  RH  059%=      5-min Rain = 0
KBI1 131644Z 18013KT 05/M02 A3011 RMK A01 T00501022  RH  059%=      5-min Rain = 0
KBI1 131645Z 17014KT 05/M02 A301 RMK A01 T00511023  RH  059%=      5-min Rain = 0
KBI1 131646Z 18013KT 05/M02 A3011 RMK A01 T00521023  RH  059%=      5-min Rain = 0
KBI1 131647Z 17015KT 05/M02 A3011 RMK A01 T00531023  RH  058%=      5-min Rain = 0
KBI1 131648Z 18016G21KT 05/M02 A3011 RMK A01 T00531023  RH  058%=      5-min Rain = 0
KBI1 131649Z 18017KT 05/M02 A301 RMK A01 T00521023  RH  058%=      5-min Rain = 0
KBI1 131650Z 18017KT 05/M02 A301 RMK A01 T00511024  RH  058%=      5-min Rain = 0
KBI1 131651Z 18016G21KT 05/M02 A301 RMK A01 T00511024  RH  059%=      5-min Rain = 0
KBI1 131652Z 19018KT 05/M02 A301 RMK A01 T00511024  RH  058%=      5-min Rain = 0
KBI1 131653Z 19016KT 05/M03 A301 RMK A01 T00501025  RH  059%=      5-min Rain = 0
KBI1 131654Z 18014KT 05/M02 A3011 RMK A01 T00511022  RH  059%=      5-min Rain = 0
KBI1 131655Z 18014KT 05/M02 A3011 RMK A01 T00541021  RH  058%=      5-min Rain = 0
KBI1 131656Z 18017KT 05/M02 A301 RMK A01 T00541023  RH  058%=      5-min Rain = 0
KBI1 131657Z 18017KT 05/M02 A301 RMK A01 T00521024  RH  058%=      5-min Rain = 0
KBI1 131658Z 18016G21KT 05/M02 A301 RMK A01 T00511024  RH  058%=      5-min Rain = 0
KBI1 131659Z 18015KT 05/M02 A301 RMK A01 T00511023  RH  059%=      5-min Rain = 0
KBI1 131700Z 18019KT 05/M02 A301 RMK A01 T00521023  RH  059%=      5-min Rain = 0
KBI1 131701Z 18016KT 05/M03 A301 RMK A01 T00501025  RH  058%=      5-min Rain = 0
KBI1 131702Z 18015KT 05/M02 A301 RMK A01 T00501024  RH  059%=      5-min Rain = 0
KBI1 131703Z 18013KT 05/M02 A301 RMK A01 T00511022  RH  059%=      5-min Rain = 0
KBI1 131704Z 17016KT 05/M02 A301 RMK A01 T00521021  RH  059%=      5-min Rain = 0
KBI1 131705Z 18016KT 05/M02 A301 RMK A01 T00521024  RH  058%=      5-min Rain = 0
KBI1 131706Z 18016G22KT 05/M02 A301 RMK A01 T00511024  RH  059%=      5-min Rain = 0
KBI1 131707Z 18014KT 05/M02 A301 RMK A01 T00511022  RH  059%=      5-min Rain = 0
KBI1 131708Z 19016KT 05/M02 A301 RMK A01 T00521022  RH  059%=      5-min Rain = 0
KBI1 131709Z 19019KT 05/M02 A301 RMK A01 T00531022  RH  058%=      5-min Rain = 0
KBI1 131710Z 18018KT 05/M02 A301 RMK A01 T00521023  RH  059%=      5-min Rain = 0
KBI1 131711Z 18018KT 05/M02 A301 RMK A01 T00511023  RH  059%=      5-min Rain = 0
KBI1 131712Z 19016KT 05/M02 A301 RMK A01 T00511022  RH  059%=      5-min Rain = 0
KBI1 131713Z 18017KT 05/M02 A301 RMK A01 T00521021  RH  059%=      5-min Rain = 0
KBI1 131714Z 18016KT 05/M02 A301 RMK A01 T00531021  RH  059%=      5-min Rain = 0
KBI1 131715Z 18013KT 05/M02 A301 RMK A01 T00541020  RH  059%=      5-min Rain = 0
KBI1 131716Z 19012KT 06/M02 A301 RMK A01 T00561018  RH  059%=      5-min Rain = 0
KBI1 131717Z 18016KT 06/M02 A301 RMK A01 T00581018  RH  058%=      5-min Rain = 0
KBI1 131718Z 18017KT 06/M02 A301 RMK A01 T00571020  RH  057%=      5-min Rain = 0
KBI1 131719Z 18015KT 06/M02 A301 RMK A01 T00571019  RH  058%=      5-min Rain = 0
KBI1 131720Z 18016KT 06/M02 A301 RMK A01 T00571019  RH  058%=      5-min Rain = 0
KBI1 131721Z 18014G19KT 06/M02 A301 RMK A01 T00571018  RH  058%=      5-min Rain = 0
KBI1 131722Z 19016KT 06/M02 A301 RMK A01 T00591017  RH  058%=      5-min Rain = 0
KBI1 131723Z 19019KT 06/M02 A301 RMK A01 T00601018  RH  058%=      5-min Rain = 0
KBI1 131724Z 19017KT 06/M02 A301 RMK A01 T00591018  RH  058%=      5-min Rain = 0
KBI1 131725Z 19014KT 06/M02 A301 RMK A01 T00591016  RH  058%=      5-min Rain = 0
KBI1 131726Z 19014G20KT 06/M02 A301 RMK A01 T00611016  RH  058%=      5-min Rain = 0
KBI1 131727Z 18015KT 06/M02 A301 RMK A01 T00611018  RH  057%=      5-min Rain = 0
KBI1 131728Z 18012KT 06/M02 A301 RMK A01 T00611017  RH  057%=      5-min Rain = 0
KBI1 131729Z 18015KT 06/M02 A301 RMK A01 T00631016  RH  057%=      5-min Rain = 0
KBI1 131730Z 18016KT 06/M02 A301 RMK A01 T00621018  RH  057%=      5-min Rain = 0
KBI1 131731Z 18016G21KT 06/M02 A301 RMK A01 T00611017  RH  057%=      5-min Rain = 0
KBI1 131732Z 18017G22KT 06/M02 A301 RMK A01 T00611018  RH  057%=      5-min Rain = 0
KBI1 131733Z 18018KT 06/M02 A301 RMK A01 T00611018  RH  057%=      5-min Rain = 0
KBI1 131734Z 17016KT 06/M02 A301 RMK A01 T00601017  RH  058%=      5-min Rain = 0
KBI1 131735Z 18015KT 06/M02 A301 RMK A01 T00611016  RH  058%=      5-min Rain = 0
KBI1 131736Z 18016KT 06/M02 A301 RMK A01 T00611016  RH  057%=      5-min Rain = 0
KBI1 131737Z 18016KT 06/M02 A301 RMK A01 T00611017  RH  057%=      5-min Rain = 0
KBI1 131738Z 18017KT 06/M02 A301 RMK A01 T00611016  RH  058%=      5-min Rain = 0
KBI1 131739Z 19018KT 06/M02 A301 RMK A01 T00611016  RH  057%=      5-min Rain = 0
KBI1 131740Z 18015KT 06/M02 A301 RMK A01 T00601017  RH  058%=      5-min Rain = 0
KBI1 131741Z 18017G22KT 06/M02 A301 RMK A01 T00611015  RH  058%=      5-min Rain = 0
KBI1 131742Z 18015KT 06/M02 A3009 RMK A01 T00601017  RH  058%=      5-min Rain = 0
KBI1 131743Z 17014G19KT 06/M02 A3009 RMK A01 T00601016  RH  058%=      5-min Rain = 0
KBI1 131744Z 17017KT 06/M02 A3009 RMK A01 T00591016  RH  059%=      5-min Rain = 0
KBI1 131745Z 17018KT 06/M02 A3009 RMK A01 T00591017  RH  058%=      5-min Rain = 0
KBI1 131746Z 18017G22KT 06/M02 A3009 RMK A01 T00571018  RH  059%=      5-min Rain = 0
KBI1 131747Z 19014KT 06/M02 A3009 RMK A01 T00571017  RH  059%=      5-min Rain = 0
KBI1 131748Z 19012KT 06/M02 A3009 RMK A01 T00591015  RH  059%=      5-min Rain = 0
KBI1 131749Z 19013KT 06/M01 A3009 RMK A01 T00611014  RH  059%=      5-min Rain = 0
KBI1 131750Z 19013KT 06/M01 A3009 RMK A01 T00621014  RH  058%=      5-min Rain = 0
KBI1 131751Z 19013KT 06/M01 A3009 RMK A01 T00621014  RH  058%=      5-min Rain = 0
KBI1 131752Z 18014KT 06/M01 A3009 RMK A01 T00631013  RH  058%=      5-min Rain = 0
KBI1 131753Z 19017KT 06/M02 A3009 RMK A01 T00631015  RH  057%=      5-min Rain = 0
KBI1 131754Z 19019KT 06/M02 A3008 RMK A01 T00611016  RH  058%=      5-min Rain = 0
KBI1 131755Z 19020G26KT 06/M02 A3008 RMK A01 T00591018  RH  058%=      5-min Rain = 0
KBI1 131756Z 19018G23KT 06/M02 A3008 RMK A01 T00571017  RH  059%=      5-min Rain = 0
KBI1 131757Z 19020G26KT 06/M02 A3008 RMK A01 T00571017  RH  059%=      5-min Rain = 0
KBI1 131758Z 19020KT 06/M02 A3008 RMK A01 T00561018  RH  059%=      5-min Rain = 0
KBI1 131759Z 19019G24KT 06/M02 A3008 RMK A01 T00551017  RH  059%=      5-min Rain = 0
KBI1 131800Z 19017KT 06/M02 A3008 RMK A01 T00551017  RH  060%=      5-min Rain = 0
KBI1 131801Z 18019KT 06/M02 A3008 RMK A01 T00561017  RH  060%=      5-min Rain = 0
KBI1 131802Z 18019KT 06/M02 A3008 RMK A01 T00561017  RH  059%=      5-min Rain = 0
KBI1 131803Z 18017KT 06/M02 A3008 RMK A01 T00551017  RH  060%=      5-min Rain = 0
KBI1 131804Z 18015KT 06/M02 A3008 RMK A01 T00551017  RH  060%=      5-min Rain = 0
KBI1 131805Z 17015KT 06/M02 A3008 RMK A01 T00561016  RH  060%=      5-min Rain = 0
KBI1 131806Z 18017KT 06/M02 A3008 RMK A01 T00561017  RH  059%=      5-min Rain = 0
KBI1 131807Z 18016KT 06/M02 A3008 RMK A01 T00561017  RH  059%=      5-min Rain = 0
KBI1 131808Z 18016KT 06/M02 A3008 RMK A01 T00551016  RH  060%=      5-min Rain = 0
KBI1 131809Z 18014KT 06/M02 A3008 RMK A01 T00571015  RH  060%=      5-min Rain = 0
KBI1 131810Z 19013KT 06/M01 A3008 RMK A01 T00581014  RH  060%=      5-min Rain = 0
KBI1 131811Z 18015KT 06/M01 A3008 RMK A01 T00601014  RH  059%=      5-min Rain = 0
KBI1 131812Z 18018KT 06/M02 A3007 RMK A01 T00591016  RH  058%=      5-min Rain = 0
KBI1 131813Z 17016G21KT 06/M02 A3008 RMK A01 T00581017  RH  059%=      5-min Rain = 0
KBI1 131814Z 18018KT 06/M02 A3007 RMK A01 T00571016  RH  059%=      5-min Rain = 0
KBI1 131815Z 18018KT 06/M02 A3007 RMK A01 T00561017  RH  059%=      5-min Rain = 0
KBI1 131816Z 18016KT 06/M02 A3007 RMK A01 T00561017  RH  059%=      5-min Rain = 0
KBI1 131817Z 18017KT 06/M02 A3007 RMK A01 T00561016  RH  060%=      5-min Rain = 0
KBI1 131818Z 18016G22KT 06/M02 A3007 RMK A01 T00561017  RH  059%=      5-min Rain = 0
KBI1 131819Z 18019KT 06/M02 A3007 RMK A01 T00551018  RH  059%=      5-min Rain = 0
KBI1 131820Z 18014KT 05/M02 A3007 RMK A01 T00541018  RH  060%=      5-min Rain = 0
KBI1 131821Z 18016KT 05/M02 A3007 RMK A01 T00541016  RH  060%=      5-min Rain = 0
KBI1 131822Z 18015KT 06/M02 A3007 RMK A01 T00551017  RH  060%=      5-min Rain = 0
KBI1 131823Z 17016G22KT 06/M02 A3007 RMK A01 T00551016  RH  060%=      5-min Rain = 0
KBI1 131824Z 17017G22KT 06/M02 A3007 RMK A01 T00561017  RH  060%=      5-min Rain = 0
KBI1 131825Z 17016KT 06/M02 A3007 RMK A01 T00551017  RH  060%=      5-min Rain = 0
KBI1 131826Z 18013KT 06/M02 A3007 RMK A01 T00561016  RH  060%=      5-min Rain = 0
KBI1 131827Z 19017KT 06/M02 A3007 RMK A01 T00571016  RH  060%=      5-min Rain = 0
KBI1 131828Z 19015KT 06/M02 A3007 RMK A01 T00571017  RH  059%=      5-min Rain = 0
KBI1 131829Z 18014KT 06/M02 A3007 RMK A01 T00571016  RH  060%=      5-min Rain = 0
KBI1 131830Z 18017KT 06/M02 A3006 RMK A01 T00581017  RH  059%=      5-min Rain = 0
KBI1 131831Z 18016KT 06/M02 A3006 RMK A01 T00571018  RH  059%=      5-min Rain = 0
KBI1 131832Z 18019KT 06/M02 A3006 RMK A01 T00561019  RH  059%=      5-min Rain = 0
KBI1 131833Z 18018KT 06/M02 A3006 RMK A01 T00551019  RH  059%=      5-min Rain = 0
KBI1 131834Z 19018G23KT 06/M02 A3006 RMK A01 T00551019  RH  059%=      5-min Rain = 0
KBI1 131835Z 18019KT 06/M02 A3006 RMK A01 T00551019  RH  059%=      5-min Rain = 0
KBI1 131836Z 18018KT 06/M02 A3006 RMK A01 T00551018  RH  059%=      5-min Rain = 0
KBI1 131837Z 19020KT 06/M02 A3006 RMK A01 T00551019  RH  059%=      5-min Rain = 0
KBI1 131838Z 19019KT 05/M02 A3006 RMK A01 T00541020  RH  059%=      5-min Rain = 0
KBI1 131839Z 19017KT 05/M02 A3006 RMK A01 T00531019  RH  059%=      5-min Rain = 0
KBI1 131840Z 18017G24KT 06/M02 A3006 RMK A01 T00551017  RH  060%=      5-min Rain = 0
KBI1 131841Z 18019G24KT 06/M02 A3006 RMK A01 T00561017  RH  059%=      5-min Rain = 0
KBI1 131842Z 18017KT 06/M02 A3006 RMK A01 T00571017  RH  059%=      5-min Rain = 0
KBI1 131843Z 18018KT 06/M02 A3005 RMK A01 T00571017  RH  059%=      5-min Rain = 0
KBI1 131844Z 18019KT 06/M02 A3005 RMK A01 T00571018  RH  059%=      5-min Rain = 0
KBI1 131845Z 18018KT 06/M02 A3005 RMK A01 T00551018  RH  059%=      5-min Rain = 0
KBI1 131846Z 18019KT 05/M02 A3005 RMK A01 T00541019  RH  060%=      5-min Rain = 0
KBI1 131847Z 18015KT 05/M02 A3005 RMK A01 T00541017  RH  060%=      5-min Rain = 0
KBI1 131848Z 18017KT 06/M02 A3005 RMK A01 T00561016  RH  060%=      5-min Rain = 0
KBI1 131849Z 18018KT 06/M02 A3005 RMK A01 T00561017  RH  059%=      5-min Rain = 0
KBI1 131850Z 18015KT 06/M02 A3005 RMK A01 T00551018  RH  059%=      5-min Rain = 0
KBI1 131851Z 18017G23KT 06/M02 A3005 RMK A01 T00551018  RH  060%=      5-min Rain = 0
KBI1 131852Z 18018KT 06/M02 A3005 RMK A01 T00551017  RH  060%=      5-min Rain = 0
KBI1 131853Z 18016KT 06/M02 A3005 RMK A01 T00551018  RH  059%=      5-min Rain = 0
KBI1 131854Z 18019KT 06/M02 A3005 RMK A01 T00551017  RH  060%=      5-min Rain = 0
KBI1 131855Z 18019KT 05/M02 A3005 RMK A01 T00541018  RH  060%=      5-min Rain = 0
KBI1 131856Z 18019KT 05/M02 A3005 RMK A01 T00541018  RH  060%=      5-min Rain = 0
KBI1 131857Z 18017KT 05/M02 A3005 RMK A01 T00531018  RH  060%=      5-min Rain = 0
KBI1 131858Z 18019G24KT 05/M02 A3005 RMK A01 T00541016  RH  061%=      5-min Rain = 0
KBI1 131859Z 18017KT 05/M02 A3005 RMK A01 T00541017  RH  060%=      5-min Rain = 0
KBI1 131900Z 18017KT 06/M02 A3005 RMK A01 T00551016  RH  060%=      5-min Rain = 0
KBI1 131901Z 18014KT 06/M02 A3005 RMK A01 T00551016  RH  060%=      5-min Rain = 0
KBI1 131902Z 19019KT 06/M02 A3004 RMK A01 T00561016  RH  060%=      5-min Rain = 0
KBI1 131903Z 18013G19KT 06/M02 A3004 RMK A01 T00551017  RH  060%=      5-min Rain = 0
KBI1 131904Z 19013G19KT 06/M02 A3004 RMK A01 T00551015  RH  060%=      5-min Rain = 0
KBI1 131905Z 19016KT 06/M02 A3004 RMK A01 T00561016  RH  059%=      5-min Rain = 0
KBI1 131906Z 17017KT 06/M02 A3004 RMK A01 T00561016  RH  059%=      5-min Rain = 0
KBI1 131907Z 17016KT 06/M02 A3004 RMK A01 T00561017  RH  059%=      5-min Rain = 0
KBI1 131908Z 18016G22KT 06/M02 A3004 RMK A01 T00551017  RH  060%=      5-min Rain = 0
KBI1 131909Z 18017KT 06/M02 A3004 RMK A01 T00561016  RH  060%=      5-min Rain = 0
KBI1 131910Z 18013G18KT 06/M02 A3004 RMK A01 T00551016  RH  060%=      5-min Rain = 0
KBI1 131911Z 18015KT 06/M02 A3004 RMK A01 T00571015  RH  060%=      5-min Rain = 0
KBI1 131912Z 18017KT 06/M02 A3004 RMK A01 T00571016  RH  059%=      5-min Rain = 0
KBI1 131913Z 18015KT 06/M02 A3004 RMK A01 T00571016  RH  060%=      5-min Rain = 0
KBI1 131914Z 18019G25KT 06/M02 A3004 RMK A01 T00561016  RH  060%=      5-min Rain = 0
KBI1 131915Z 18018KT 06/M02 A3004 RMK A01 T00551016  RH  060%=      5-min Rain = 0
KBI1 131916Z 18017KT 05/M02 A3004 RMK A01 T00541016  RH  060%=      5-min Rain = 0
KBI1 131917Z 18013G19KT 05/M02 A3004 RMK A01 T00541016  RH  061%=      5-min Rain = 0
KBI1 131918Z 18014G19KT 06/M01 A3004 RMK A01 T00551014  RH  061%=      5-min Rain = 0
KBI1 131919Z 18014G20KT 06/M02 A3004 RMK A01 T00551015  RH  061%=      5-min Rain = 0
KBI1 131920Z 18016G21KT 06/M02 A3004 RMK A01 T00561015  RH  060%=      5-min Rain = 0
KBI1 131921Z 18013KT 06/M02 A3004 RMK A01 T00551015  RH  060%=      5-min Rain = 0
KBI1 131922Z 18014KT 06/M02 A3004 RMK A01 T00551015  RH  061%=      5-min Rain = 0
KBI1 131923Z 17015KT 06/M01 A3004 RMK A01 T00561014  RH  061%=      5-min Rain = 0
KBI1 131924Z 18013KT 06/M02 A3004 RMK A01 T00551015  RH  060%=      5-min Rain = 0
KBI1 131925Z 18011KT 06/M01 A3004 RMK A01 T00551014  RH  061%=      5-min Rain = 0
KBI1 131926Z 18011KT 06/M01 A3004 RMK A01 T00561014  RH  061%=      5-min Rain = 0
KBI1 131927Z 18014KT 06/M01 A3004 RMK A01 T00571014  RH  060%=      5-min Rain = 0
KBI1 131928Z 19013KT 06/M01 A3004 RMK A01 T00561014  RH  060%=      5-min Rain = 0
KBI1 131929Z 19012KT 06/M01 A3004 RMK A01 T00561014  RH  061%=      5-min Rain = 0
KBI1 131930Z 19013KT 06/M01 A3004 RMK A01 T00561014  RH  061%=      5-min Rain = 0
KBI1 131931Z 19013KT 06/M01 A3003 RMK A01 T00561014  RH  061%=      5-min Rain = 0
KBI1 131932Z 18014KT 06/M01 A3003 RMK A01 T00561014  RH  061%=      5-min Rain = 0
KBI1 131933Z 18014KT 06/M02 A3003 RMK A01 T00551015  RH  061%=      5-min Rain = 0
KBI1 131934Z 18012KT 06/M02 A3003 RMK A01 T00551015  RH  061%=      5-min Rain = 0
KBI1 131935Z 18012KT 05/M01 A3003 RMK A01 T00541014  RH  062%=      5-min Rain = 0
KBI1 131936Z 18015KT 05/M01 A3003 RMK A01 T00541013  RH  062%=      5-min Rain = 0
KBI1 131937Z 18014KT 05/M01 A3003 RMK A01 T00541013  RH  062%=      5-min Rain = 0
KBI1 131938Z 19011KT 06/M01 A3003 RMK A01 T00551012  RH  062%=      5-min Rain = 0
KBI1 131939Z 17011KT 06/M01 A3003 RMK A01 T00551012  RH  062%=      5-min Rain = 0
KBI1 131940Z 17013KT 06/M01 A3003 RMK A01 T00551013  RH  062%=      5-min Rain = 0
KBI1 131941Z 17012KT 05/M01 A3003 RMK A01 T00541014  RH  062%=      5-min Rain = 0
KBI1 131942Z 18012KT 05/M01 A3003 RMK A01 T00541013  RH  062%=      5-min Rain = 0
KBI1 131943Z 18011KT 05/M01 A3003 RMK A01 T00541012  RH  063%=      5-min Rain = 0
KBI1 131944Z 19011G16KT 05/M01 A3003 RMK A01 T00541012  RH  062%=      5-min Rain = 0
KBI1 131945Z 18014KT 05/M01 A3003 RMK A01 T00541012  RH  062%=      5-min Rain = 0
KBI1 131946Z 18014KT 05/M01 A3003 RMK A01 T00541012  RH  062%=      5-min Rain = 0
KBI1 131947Z 18010KT 05/M01 A3003 RMK A01 T00531012  RH  063%=      5-min Rain = 0
KBI1 131948Z 18012KT 05/M01 A3003 RMK A01 T00531011  RH  063%=      5-min Rain = 0
KBI1 131949Z 18012KT 05/M01 A3003 RMK A01 T00541011  RH  063%=      5-min Rain = 0
KBI1 131950Z 18013KT 05/M01 A3002 RMK A01 T00541011  RH  063%=      5-min Rain = 0
KBI1 131951Z 18013KT 05/M01 A3002 RMK A01 T00541010  RH  063%=      5-min Rain = 0
KBI1 131952Z 18013G18KT 05/M01 A3002 RMK A01 T00531010  RH  064%=      5-min Rain = 0
KBI1 131953Z 19015KT 05/M01 A3002 RMK A01 T00531009  RH  064%=      5-min Rain = 0
KBI1 131954Z 19013KT 05/M01 A3002 RMK A01 T00531010  RH  064%=      5-min Rain = 0
KBI1 131955Z 19012KT 05/M01 A3002 RMK A01 T00531009  RH  064%=      5-min Rain = 0
KBI1 131956Z 18014G19KT 05/M01 A3002 RMK A01 T00541008  RH  065%=      5-min Rain = 0
KBI1 131957Z 18014KT 05/M01 A3002 RMK A01 T00541008  RH  064%=      5-min Rain = 0
KBI1 131958Z 19014KT 05/M01 A3002 RMK A01 T00531008  RH  065%=      5-min Rain = 0
KBI1 131959Z 19014KT 05/M01 A3002 RMK A01 T00531009  RH  065%=      5-min Rain = 0
KBI1 132000Z 19014KT 05/M01 A3002 RMK A01 T00531008  RH  065%=      5-min Rain = 0
KBI1 132001Z 18016G21KT 05/M01 A3002 RMK A01 T00531008  RH  065%=      5-min Rain = 0
KBI1 132002Z 19016KT 05/M01 A3002 RMK A01 T00521008  RH  065%=      5-min Rain = 0
KBI1 132003Z 18014KT 05/M01 A3002 RMK A01 T00531008  RH  065%=      5-min Rain = 0
KBI1 132004Z 18016KT 05/M01 A3001 RMK A01 T00531007  RH  065%=      5-min Rain = 0
KBI1 132005Z 19013KT 05/M01 A3001 RMK A01 T00521008  RH  065%=      5-min Rain = 0
KBI1 132006Z 19014KT 05/M01 A3001 RMK A01 T00511007  RH  066%=      5-min Rain = 0
KBI1 132007Z 19014KT 05/M01 A3001 RMK A01 T00521007  RH  066%=      5-min Rain = 0
KBI1 132008Z 19015KT 05/M01 A3001 RMK A01 T00521007  RH  066%=      5-min Rain = 0
KBI1 132009Z 19016KT 05/M01 A3001 RMK A01 T00521007  RH  066%=      5-min Rain = 0
KBI1 132010Z 18015KT 05/M01 A3001 RMK A01 T00521007  RH  066%=      5-min Rain = 0
KBI1 132011Z 19012KT 05/M01 A3001 RMK A01 T00511007  RH  066%=      5-min Rain = 0
KBI1 132012Z 18013KT 05/M01 A3001 RMK A01 T00521005  RH  066%=      5-min Rain = 0
KBI1 132013Z 18015KT 05/M01 A3001 RMK A01 T00531006  RH  066%=      5-min Rain = 0
KBI1 132014Z 19014G19KT 05/M01 A3001 RMK A01 T00531005  RH  066%=      5-min Rain = 0
KBI1 132015Z 18014KT 05/M01 A3001 RMK A01 T00531005  RH  066%=      5-min Rain = 0
KBI1 132016Z 18014KT 05/M01 A3001 RMK A01 T00531005  RH  066%=      5-min Rain = 0
KBI1 132017Z 18016KT 05/M01 A3001 RMK A01 T00531005  RH  066%=      5-min Rain = 0
KBI1 132018Z 18014KT 05/M01 A3001 RMK A01 T00531005  RH  066%=      5-min Rain = 0
KBI1 132019Z 19014KT 05/M00 A3001 RMK A01 T00531004  RH  067%=      5-min Rain = 0
KBI1 132020Z 19016KT 05/M00 A3001 RMK A01 T00541004  RH  066%=      5-min Rain = 0
KBI1 132021Z 18015G20KT 05/M00 A3001 RMK A01 T00541004  RH  066%=      5-min Rain = 0
KBI1 132022Z 19013KT 05/M00 A3001 RMK A01 T00541004  RH  066%=      5-min Rain = 0
KBI1 132023Z 18014KT 06/M00 A30 RMK A01 T00551003  RH  066%=      5-min Rain = 0
KBI1 132024Z 19016KT 06/M00 A30 RMK A01 T00551003  RH  066%=      5-min Rain = 0
KBI1 132025Z 19014KT 06/M00 A30 RMK A01 T00551003  RH  066%=      5-min Rain = 0
KBI1 132026Z 19013KT 05/M00 A30 RMK A01 T00541003  RH  067%=      5-min Rain = 0
KBI1 132027Z 20015KT 06/M00 A30 RMK A01 T00551002  RH  067%=      5-min Rain = 0
KBI1 132028Z 20017KT 06/M00 A30 RMK A01 T00551003  RH  066%=      5-min Rain = 0
KBI1 132029Z 20016KT 06/M00 A30 RMK A01 T00551002  RH  067%=      5-min Rain = 0
KBI1 132030Z 20012G17KT 06/M00 A30 RMK A01 T00551002  RH  067%=      5-min Rain = 0
KBI1 132031Z 19011KT 06/M00 A30 RMK A01 T00551001  RH  067%=      5-min Rain = 0
KBI1 132032Z 19012KT 06/M00 A3001 RMK A01 T00561001  RH  067%=      5-min Rain = 0
KBI1 132033Z 18011KT 06/M00 A3001 RMK A01 T00571001  RH  067%=      5-min Rain = 0
KBI1 132034Z 19013G18KT 06/00 A3001 RMK A01 T00580000  RH  067%=      5-min Rain = 0
KBI1 132035Z 19014KT 06/M00 A3001 RMK A01 T00571002  RH  066%=      5-min Rain = 0
KBI1 132036Z 19013KT 06/M00 A30 RMK A01 T00561001  RH  067%=      5-min Rain = 0
KBI1 132037Z 19014KT 06/M00 A30 RMK A01 T00561001  RH  067%=      5-min Rain = 0
KBI1 132038Z 20012KT 06/M00 A30 RMK A01 T00561001  RH  067%=      5-min Rain = 0
KBI1 132039Z 20014KT 06/00 A30 RMK A01 T005600-0  RH  067%=      5-min Rain = 0
KBI1 132040Z 19014KT 06/M00 A30 RMK A01 T00561001  RH  067%=      5-min Rain = 0
KBI1 132041Z 18014KT 06/00 A30 RMK A01 T005600-0  RH  067%=      5-min Rain = 0
KBI1 132042Z 20013KT 06/00 A30 RMK A01 T00560001  RH  068%=      5-min Rain = 0
KBI1 132043Z 19012KT 06/00 A30 RMK A01 T00570001  RH  067%=      5-min Rain = 0
KBI1 132044Z 19013KT 06/00 A30 RMK A01 T00570000  RH  067%=      5-min Rain = 0
KBI1 132045Z 19012KT 06/00 A30 RMK A01 T00570001  RH  067%=      5-min Rain = 0
KBI1 132046Z 19013KT 06/00 A30 RMK A01 T00570001  RH  067%=      5-min Rain = 0
KBI1 132047Z 19013KT 06/00 A30 RMK A01 T00570001  RH  067%=      5-min Rain = 0
KBI1 132048Z 19015KT 06/00 A30 RMK A01 T00560001  RH  067%=      5-min Rain = 0
KBI1 132049Z 19015KT 06/00 A30 RMK A01 T00560001  RH  067%=      5-min Rain = 0
KBI1 132050Z 19015KT 06/00 A30 RMK A01 T00560001  RH  068%=      5-min Rain = 0
KBI1 132051Z 19015KT 06/00 A30 RMK A01 T00560001  RH  068%=      5-min Rain = 0
KBI1 132052Z 19014KT 06/00 A30 RMK A01 T00560001  RH  068%=      5-min Rain = 0
KBI1 132053Z 19015KT 06/00 A30 RMK A01 T00560001  RH  068%=      5-min Rain = 0
KBI1 132054Z 19014KT 06/00 A30 RMK A01 T00560001  RH  068%=      5-min Rain = 0
KBI1 132055Z 20015KT 06/00 A30 RMK A01 T00570002  RH  068%=      5-min Rain = 0
KBI1 132056Z 20014KT 06/00 A2999 RMK A01 T00570002  RH  067%=      5-min Rain = 0
KBI1 132057Z 19015KT 06/00 A2999 RMK A01 T00570002  RH  068%=      5-min Rain = 0
KBI1 132058Z 20013KT 06/00 A2999 RMK A01 T00570002  RH  068%=      5-min Rain = 0
KBI1 132059Z 19012KT 06/00 A2999 RMK A01 T00590004  RH  068%=      5-min Rain = 0
KBI1 132100Z 20011KT 06/01 A2999 RMK A01 T00610005  RH  067%=      5-min Rain = 0
KBI1 132101Z 19009G14KT 06/01 A2999 RMK A01 T00630006  RH  067%=      5-min Rain = 0
KBI1 132102Z 20013KT 07/01 A2999 RMK A01 T00650006  RH  066%=      5-min Rain = 0
KBI1 132103Z 20012KT 06/00 A2999 RMK A01 T00630004  RH  066%=      5-min Rain = 0
KBI1 132104Z 21012KT 06/00 A2999 RMK A01 T00620004  RH  066%=      5-min Rain = 0
KBI1 132105Z 19013KT 06/00 A2999 RMK A01 T00620004  RH  067%=      5-min Rain = 0
KBI1 132106Z 19012KT 06/01 A2999 RMK A01 T00620005  RH  067%=      5-min Rain = 0
KBI1 132107Z 19010KT 06/01 A2999 RMK A01 T00620005  RH  067%=      5-min Rain = 0
KBI1 132108Z 19012KT 06/01 A2999 RMK A01 T00630006  RH  067%=      5-min Rain = 0
KBI1 132109Z 19012KT 06/01 A2999 RMK A01 T00640006  RH  067%=      5-min Rain = 0
KBI1 132110Z 20011KT 06/01 A2999 RMK A01 T00630006  RH  067%=      5-min Rain = 0
KBI1 132111Z 20010KT 06/01 A2999 RMK A01 T00630007  RH  067%=      5-min Rain = 0
KBI1 132112Z 19011KT 06/01 A2999 RMK A01 T00640007  RH  067%=      5-min Rain = 0
KBI1 132113Z 20011KT 06/01 A2999 RMK A01 T00640007  RH  067%=      5-min Rain = 0
KBI1 132114Z 18009KT 06/01 A2999 RMK A01 T00640007  RH  067%=      5-min Rain = 0
KBI1 132115Z 18010KT 06/01 A2999 RMK A01 T00640008  RH  067%=      5-min Rain = 0
KBI1 132116Z 19011KT 06/01 A2999 RMK A01 T00640006  RH  067%=      5-min Rain = 0
KBI1 132117Z 19012KT 06/01 A2999 RMK A01 T00640007  RH  067%=      5-min Rain = 0
KBI1 132118Z 18014KT 06/01 A2999 RMK A01 T00640008  RH  067%=      5-min Rain = 0
KBI1 132119Z 19013KT 06/01 A2999 RMK A01 T00640008  RH  067%=      5-min Rain = 0
KBI1 132120Z 19011KT 06/01 A2999 RMK A01 T00630007  RH  067%=      5-min Rain = 0
KBI1 132121Z 20011KT 06/01 A2999 RMK A01 T00630008  RH  068%=      5-min Rain = 0
KBI1 132122Z 19011KT 06/01 A2999 RMK A01 T00620008  RH  068%=      5-min Rain = 0
KBI1 132123Z 19009KT 06/01 A2999 RMK A01 T00620008  RH  068%=      5-min Rain = 0
KBI1 132124Z 18010KT 06/01 A2999 RMK A01 T00640010  RH  068%=      5-min Rain = 0
KBI1 132125Z 18012KT 07/01 A2999 RMK A01 T00650010  RH  068%=      5-min Rain = 0
KBI1 132126Z 17012KT 07/01 A2999 RMK A01 T00650009  RH  067%=      5-min Rain = 0
KBI1 132127Z 18011KT 06/01 A2999 RMK A01 T00630008  RH  068%=      5-min Rain = 0
KBI1 132128Z 17013KT 06/01 A2998 RMK A01 T00630008  RH  068%=      5-min Rain = 0
KBI1 132129Z 17013KT 06/01 A2998 RMK A01 T00620008  RH  068%=      5-min Rain = 0
KBI1 132130Z 18013KT 06/01 A2998 RMK A01 T00610008  RH  069%=      5-min Rain = 0
KBI1 132131Z 17014KT 06/01 A2998 RMK A01 T00610008  RH  069%=      5-min Rain = 0
KBI1 132132Z 18014KT 06/01 A2998 RMK A01 T00600008  RH  069%=      5-min Rain = 0
KBI1 132133Z 19013KT 06/01 A2998 RMK A01 T00600008  RH  069%=      5-min Rain = 0
KBI1 132134Z 17012KT 06/01 A2998 RMK A01 T00600009  RH  070%=      5-min Rain = 0
KBI1 132135Z 17012G17KT 06/01 A2998 RMK A01 T00600008  RH  069%=      5-min Rain = 0
KBI1 132136Z 17015KT 06/01 A2998 RMK A01 T00600008  RH  070%=      5-min Rain = 0
KBI1 132137Z 18011KT 06/01 A2998 RMK A01 T00590009  RH  070%=      5-min Rain = 0
KBI1 132138Z 18013KT 06/01 A2998 RMK A01 T00590009  RH  070%=      5-min Rain = 0
KBI1 132139Z 18013KT 06/01 A2998 RMK A01 T00590009  RH  070%=      5-min Rain = 0
KBI1 132140Z 18012KT 06/01 A2998 RMK A01 T00590009  RH  070%=      5-min Rain = 0
KBI1 132141Z 17012KT 06/01 A2998 RMK A01 T00600009  RH  070%=      5-min Rain = 0
KBI1 132142Z 19010KT 06/01 A2998 RMK A01 T00590009  RH  070%=      5-min Rain = 0
KBI1 132143Z 18009KT 06/01 A2998 RMK A01 T00600010  RH  070%=      5-min Rain = 0
KBI1 132144Z 17011KT 06/01 A2998 RMK A01 T00600010  RH  070%=      5-min Rain = 0
KBI1 132145Z 18013KT 06/01 A2998 RMK A01 T00600010  RH  070%=      5-min Rain = 0
KBI1 132146Z 18013KT 06/01 A2998 RMK A01 T00590009  RH  070%=      5-min Rain = 0
KBI1 132147Z 19012KT 06/01 A2998 RMK A01 T00580009  RH  070%=      5-min Rain = 0
KBI1 132148Z 19011KT 06/01 A2998 RMK A01 T00580009  RH  071%=      5-min Rain = 0
KBI1 132149Z 18011KT 06/01 A2998 RMK A01 T00580009  RH  071%=      5-min Rain = 0
KBI1 132150Z 18012KT 06/01 A2998 RMK A01 T00580009  RH  071%=      5-min Rain = 0
KBI1 132151Z 19013KT 06/01 A2998 RMK A01 T00580010  RH  071%=      5-min Rain = 0
KBI1 132152Z 19014KT 06/01 A2998 RMK A01 T00580009  RH  071%=      5-min Rain = 0
KBI1 132153Z 19014KT 06/01 A2998 RMK A01 T00570008  RH  071%=      5-min Rain = 0
KBI1 132154Z 19013G18KT 06/01 A2998 RMK A01 T00560008  RH  071%=      5-min Rain = 0
KBI1 132155Z 18014KT 06/01 A2998 RMK A01 T00560009  RH  072%=      5-min Rain = 0
KBI1 132156Z 18011KT 06/01 A2998 RMK A01 T00560010  RH  072%=      5-min Rain = 0
KBI1 132157Z 17011KT 06/01 A2998 RMK A01 T00560010  RH  072%=      5-min Rain = 0
KBI1 132158Z 18013KT 06/01 A2998 RMK A01 T00570010  RH  072%=      5-min Rain = 0
KBI1 132159Z 18013KT 06/01 A2998 RMK A01 T00560009  RH  072%=      5-min Rain = 0
KBI1 132200Z 18013KT 06/01 A2998 RMK A01 T00550009  RH  072%=      5-min Rain = 0
KBI1 132201Z 17015KT 05/01 A2998 RMK A01 T00540009  RH  073%=      5-min Rain = 0
KBI1 132202Z 18013KT 05/01 A2998 RMK A01 T00530009  RH  073%=      5-min Rain = 0
KBI1 132203Z 17011KT 05/01 A2998 RMK A01 T00530009  RH  073%=      5-min Rain = 0
KBI1 132204Z 17013KT 05/01 A2998 RMK A01 T00530009  RH  073%=      5-min Rain = 0
KBI1 132205Z 18013KT 05/01 A2998 RMK A01 T00520009  RH  073%=      5-min Rain = 0
KBI1 132206Z 17011KT 05/01 A2998 RMK A01 T00520009  RH  074%=      5-min Rain = 0
KBI1 132207Z 18014KT 05/01 A2998 RMK A01 T00520009  RH  074%=      5-min Rain = 0
KBI1 132208Z 17013KT 05/01 A2998 RMK A01 T00520009  RH  074%=      5-min Rain = 0
KBI1 132209Z 17014KT 05/01 A2998 RMK A01 T00520009  RH  074%=      5-min Rain = 0
KBI1 132210Z 18014KT 05/01 A2998 RMK A01 T00510008  RH  074%=      5-min Rain = 0
KBI1 132211Z 18014KT 05/01 A2998 RMK A01 T00500009  RH  075%=      5-min Rain = 0
KBI1 132212Z 18015KT 05/01 A2998 RMK A01 T00500009  RH  075%=      5-min Rain = 0
KBI1 132213Z 18013KT 05/01 A2998 RMK A01 T00500008  RH  075%=      5-min Rain = 0
KBI1 132214Z 18013KT 05/01 A2998 RMK A01 T00490008  RH  075%=      5-min Rain = 0
KBI1 132215Z 18012KT 05/01 A2998 RMK A01 T00490009  RH  075%=      5-min Rain = 0
KBI1 132216Z 17012KT 05/01 A2998 RMK A01 T00500009  RH  075%=      5-min Rain = 0
KBI1 132217Z 18013KT 05/01 A2998 RMK A01 T00490008  RH  075%=      5-min Rain = 0
KBI1 132218Z 17011KT 05/01 A2998 RMK A01 T00490008  RH  075%=      5-min Rain = 0
KBI1 132219Z 18011G16KT 05/01 A2998 RMK A01 T00480009  RH  075%=      5-min Rain = 0
KBI1 132220Z 18014KT 05/01 A2998 RMK A01 T00490009  RH  075%=      5-min Rain = 0
KBI1 132221Z 18013G18KT 05/01 A2998 RMK A01 T00480008  RH  075%=      5-min Rain = 0
KBI1 132222Z 18013KT 05/01 A2998 RMK A01 T00480008  RH  075%=      5-min Rain = 0
KBI1 132223Z 18015KT 05/01 A2998 RMK A01 T00480008  RH  076%=      5-min Rain = 0
KBI1 132224Z 18012KT 05/01 A2998 RMK A01 T00480009  RH  076%=      5-min Rain = 0
KBI1 132225Z 18014KT 05/01 A2998 RMK A01 T00480009  RH  076%=      5-min Rain = 0
KBI1 132226Z 18011KT 05/01 A2998 RMK A01 T00480009  RH  076%=      5-min Rain = 0
KBI1 132227Z 18012KT 05/01 A2998 RMK A01 T00480009  RH  076%=      5-min Rain = 0
KBI1 132228Z 18014KT 05/01 A2998 RMK A01 T00480009  RH  076%=      5-min Rain = 0
KBI1 132229Z 18014KT 05/01 A2998 RMK A01 T00480008  RH  076%=      5-min Rain = 0
KBI1 132230Z 18015KT 05/01 A2998 RMK A01 T00470009  RH  076%=      5-min Rain = 0
KBI1 132231Z 18013KT 05/01 A2997 RMK A01 T00470009  RH  076%=      5-min Rain = 0
KBI1 132232Z 18014KT 05/01 A2997 RMK A01 T00470009  RH  076%=      5-min Rain = 0
KBI1 132233Z 18015KT 05/01 A2997 RMK A01 T00480010  RH  076%=      5-min Rain = 0
KBI1 132234Z 19013KT 05/01 A2997 RMK A01 T00480009  RH  076%=      5-min Rain = 0
KBI1 132235Z 18013KT 05/01 A2997 RMK A01 T00490010  RH  076%=      5-min Rain = 0
KBI1 132236Z 18013KT 05/01 A2997 RMK A01 T00500011  RH  076%=      5-min Rain = 0
KBI1 132237Z 19014KT 05/01 A2997 RMK A01 T00500011  RH  076%=      5-min Rain = 0
KBI1 132238Z 18014KT 05/01 A2997 RMK A01 T00510011  RH  075%=      5-min Rain = 0
KBI1 132239Z 19013KT 05/01 A2997 RMK A01 T00510011  RH  075%=      5-min Rain = 0
KBI1 132240Z 18010KT 05/01 A2997 RMK A01 T00510012  RH  076%=      5-min Rain = 0
KBI1 132241Z 18013KT 05/01 A2997 RMK A01 T00510012  RH  076%=      5-min Rain = 0
KBI1 132242Z 18012KT 05/01 A2997 RMK A01 T00510012  RH  076%=      5-min Rain = 0
KBI1 132243Z 18012KT 05/01 A2997 RMK A01 T00510012  RH  076%=      5-min Rain = 0
KBI1 132244Z 18011KT 05/01 A2997 RMK A01 T00510012  RH  076%=      5-min Rain = 0
KBI1 132245Z 18009KT 05/01 A2997 RMK A01 T00510012  RH  076%=      5-min Rain = 0
KBI1 132246Z 18008KT 05/01 A2997 RMK A01 T00510012  RH  076%=      5-min Rain = 0
KBI1 132247Z 18010KT 05/01 A2997 RMK A01 T00510013  RH  076%=      5-min Rain = 0
KBI1 132248Z 17009KT 05/01 A2997 RMK A01 T00510012  RH  076%=      5-min Rain = 0
KBI1 132249Z 18008KT 05/01 A2997 RMK A01 T00510012  RH  076%=      5-min Rain = 0
KBI1 132250Z 17009KT 05/01 A2997 RMK A01 T00510013  RH  076%=      5-min Rain = 0
KBI1 132251Z 17007KT 05/01 A2997 RMK A01 T00510013  RH  076%=      5-min Rain = 0
KBI1 132252Z 18008KT 05/01 A2997 RMK A01 T00510013  RH  076%=      5-min Rain = 0
KBI1 132253Z 18009KT 05/01 A2997 RMK A01 T00520013  RH  076%=      5-min Rain = 0
KBI1 132254Z 18008KT 05/01 A2997 RMK A01 T00520013  RH  076%=      5-min Rain = 0
KBI1 132255Z 18009KT 05/01 A2997 RMK A01 T00520014  RH  076%=      5-min Rain = 0
KBI1 132256Z 17007KT 05/01 A2997 RMK A01 T00520014  RH  076%=      5-min Rain = 0
KBI1 132257Z 17007KT 05/02 A2997 RMK A01 T00520015  RH  077%=      5-min Rain = 0
KBI1 132258Z 18008KT 05/02 A2997 RMK A01 T00530015  RH  076%=      5-min Rain = 0
KBI1 132259Z 18007KT 05/02 A2997 RMK A01 T00530015  RH  077%=      5-min Rain = 0
KBI1 132300Z 18009KT 05/02 A2997 RMK A01 T00530015  RH  077%=      5-min Rain = 0
KBI1 132301Z 18008KT 05/02 A2997 RMK A01 T00530015  RH  076%=      5-min Rain = 0
KBI1 132302Z 18011KT 05/02 A2997 RMK A01 T00530015  RH  077%=      5-min Rain = 0
KBI1 132303Z 18010KT 05/02 A2997 RMK A01 T00530016  RH  077%=      5-min Rain = 0
KBI1 132304Z 18008KT 05/02 A2997 RMK A01 T00540016  RH  077%=      5-min Rain = 0
KBI1 132305Z 18009KT 05/02 A2997 RMK A01 T00530016  RH  077%=      5-min Rain = 0
KBI1 132306Z 18009KT 05/02 A2997 RMK A01 T00540017  RH  077%=      5-min Rain = 0
KBI1 132307Z 18009KT 06/02 A2997 RMK A01 T00550018  RH  077%=      5-min Rain = 0
KBI1 132308Z 18008KT 06/02 A2997 RMK A01 T00550018  RH  077%=      5-min Rain = 0
KBI1 132309Z 17008KT 06/02 A2997 RMK A01 T00550018  RH  077%=      5-min Rain = 0
KBI1 132310Z 18009KT 06/02 A2997 RMK A01 T00560019  RH  077%=      5-min Rain = 0
KBI1 132311Z 17008KT 06/02 A2997 RMK A01 T00560020  RH  077%=      5-min Rain = 0
KBI1 132312Z 17009KT 06/02 A2997 RMK A01 T00570020  RH  077%=      5-min Rain = 0
KBI1 132313Z 18009KT 06/02 A2997 RMK A01 T00570020  RH  077%=      5-min Rain = 0
KBI1 132314Z 17008KT 06/02 A2997 RMK A01 T00580022  RH  078%=      5-min Rain = 0
KBI1 132315Z 17007KT 06/02 A2997 RMK A01 T00580022  RH  078%=      5-min Rain = 0
KBI1 132316Z 18010KT 06/02 A2997 RMK A01 T00590023  RH  078%=      5-min Rain = 0
KBI1 132317Z 17008KT 06/02 A2997 RMK A01 T00580023  RH  078%=      5-min Rain = 0
KBI1 132318Z 17009KT 06/02 A2997 RMK A01 T00590023  RH  078%=      5-min Rain = 0
KBI1 132319Z 17009KT 06/02 A2997 RMK A01 T00590024  RH  078%=      5-min Rain = 0
KBI1 132320Z 17008KT 06/02 A2997 RMK A01 T00590024  RH  078%=      5-min Rain = 0
KBI1 132321Z 18008KT 06/02 A2997 RMK A01 T00600024  RH  078%=      5-min Rain = 0
KBI1 132322Z 18011KT 06/02 A2996 RMK A01 T00600024  RH  078%=      5-min Rain = 0
KBI1 132323Z 18009G14KT 06/02 A2997 RMK A01 T00600024  RH  078%=      5-min Rain = 0
KBI1 132324Z 18010KT 06/03 A2997 RMK A01 T00600025  RH  078%=      5-min Rain = 0
KBI1 132325Z 18010KT 06/03 A2997 RMK A01 T00610025  RH  078%=      5-min Rain = 0
KBI1 132326Z 18009KT 06/03 A2997 RMK A01 T00610025  RH  078%=      5-min Rain = 0
KBI1 132327Z 18008KT 06/03 A2997 RMK A01 T00610025  RH  078%=      5-min Rain = 0
KBI1 132328Z 18011KT 06/03 A2997 RMK A01 T00610025  RH  078%=      5-min Rain = 0
KBI1 132329Z 17008KT 06/03 A2997 RMK A01 T00610025  RH  078%=      5-min Rain = 0
KBI1 132330Z 17009KT 06/03 A2997 RMK A01 T00610025  RH  078%=      5-min Rain = 0
KBI1 132331Z 17010KT 06/03 A2997 RMK A01 T00610025  RH  078%=      5-min Rain = 0
KBI1 132332Z 17010KT 06/03 A2997 RMK A01 T00600025  RH  078%=      5-min Rain = 0
KBI1 132333Z 17010KT 06/03 A2997 RMK A01 T00590025  RH  079%=      5-min Rain = 0
KBI1 132334Z 17011KT 06/03 A2997 RMK A01 T00590025  RH  079%=      5-min Rain = 0
KBI1 132335Z 17009KT 06/03 A2997 RMK A01 T00590025  RH  079%=      5-min Rain = 0
KBI1 132336Z 17008KT 06/03 A2997 RMK A01 T00580025  RH  079%=      5-min Rain = 0
KBI1 132337Z 17011KT 06/03 A2997 RMK A01 T00580025  RH  079%=      5-min Rain = 0
KBI1 132338Z 17011KT 06/03 A2997 RMK A01 T00580025  RH  080%=      5-min Rain = 0
KBI1 132339Z 17008KT 06/03 A2997 RMK A01 T00580025  RH  080%=      5-min Rain = 0
KBI1 132340Z 17007KT 06/03 A2997 RMK A01 T00570025  RH  080%=      5-min Rain = 0
KBI1 132341Z 17008KT 06/03 A2997 RMK A01 T00570026  RH  080%=      5-min Rain = 0
KBI1 132342Z 17009KT 06/03 A2997 RMK A01 T00570025  RH  080%=      5-min Rain = 0
KBI1 132343Z 17009KT 06/03 A2997 RMK A01 T00560025  RH  080%=      5-min Rain = 0
KBI1 132344Z 17009KT 06/03 A2997 RMK A01 T00560025  RH  081%=      5-min Rain = 0
KBI1 132345Z 17010KT 06/03 A2997 RMK A01 T00550025  RH  081%=      5-min Rain = 0
KBI1 132346Z 17013KT 06/03 A2997 RMK A01 T00550025  RH  081%=      5-min Rain = 0
KBI1 132347Z 17014KT 06/02 A2997 RMK A01 T00550024  RH  081%=      5-min Rain = 0
KBI1 132348Z 17012KT 05/02 A2997 RMK A01 T00540024  RH  081%=      5-min Rain = 0
KBI1 132349Z 17013KT 05/02 A2997 RMK A01 T00540024  RH  081%=      5-min Rain = 0
KBI1 132350Z 17013KT 05/02 A2997 RMK A01 T00530024  RH  081%=      5-min Rain = 0
KBI1 132351Z 17011KT 05/02 A2997 RMK A01 T00530024  RH  082%=      5-min Rain = 0
KBI1 132352Z 16010KT 05/02 A2997 RMK A01 T00530024  RH  082%=      5-min Rain = 0
KBI1 132353Z 17008KT 05/02 A2997 RMK A01 T00530024  RH  082%=      5-min Rain = 0
KBI1 132354Z 17011KT 05/02 A2997 RMK A01 T00520024  RH  082%=      5-min Rain = 0
KBI1 132355Z 17012KT 05/02 A2997 RMK A01 T00520023  RH  082%=      5-min Rain = 0
KBI1 132356Z 17011KT 05/02 A2997 RMK A01 T00510023  RH  082%=      5-min Rain = 0
KBI1 132357Z 17011KT 05/02 A2997 RMK A01 T00510023  RH  082%=      5-min Rain = 0
KBI1 132358Z 17012KT 05/02 A2997 RMK A01 T00500023  RH  082%=      5-min Rain = 0
KBI1 132359Z 18011KT 05/02 A2997 RMK A01 T00500023  RH  082%=      5-min Rain = 0
KBI1 140000Z 17014KT 05/02 A2997 RMK A01 T00500022  RH  083%=      5-min Rain = 0
KBI1 140001Z 18012KT 05/02 A2997 RMK A01 T00500023  RH  083%=      5-min Rain = 0
KBI1 140002Z 17010KT 05/02 A2997 RMK A01 T00500023  RH  083%=      5-min Rain = 0
KBI1 140003Z 17010KT 05/02 A2997 RMK A01 T00490022  RH  083%=      5-min Rain = 0
KBI1 140004Z 16011KT 05/02 A2997 RMK A01 T00490022  RH  083%=      5-min Rain = 0
KBI1 140005Z 17012KT 05/02 A2997 RMK A01 T00480021  RH  083%=      5-min Rain = 0
KBI1 140006Z 17012KT 05/02 A2997 RMK A01 T00480021  RH  083%=      5-min Rain = 0
KBI1 140007Z 17011KT 05/02 A2997 RMK A01 T00470021  RH  083%=      5-min Rain = 0
KBI1 140008Z 17011KT 05/02 A2997 RMK A01 T00470021  RH  083%=      5-min Rain = 0
KBI1 140009Z 17012KT 05/02 A2997 RMK A01 T00470021  RH  083%=      5-min Rain = 0
KBI1 140010Z 18013KT 05/02 A2997 RMK A01 T00460020  RH  083%=      5-min Rain = 0
KBI1 140011Z 17009KT 05/02 A2997 RMK A01 T00470021  RH  083%=      5-min Rain = 0
KBI1 140012Z 17011KT 05/02 A2997 RMK A01 T00470021  RH  083%=      5-min Rain = 0
KBI1 140013Z 17012KT 05/02 A2997 RMK A01 T00470021  RH  083%=      5-min Rain = 0
KBI1 140014Z 17011KT 05/02 A2997 RMK A01 T00460020  RH  083%=      5-min Rain = 0
KBI1 140015Z 17012KT 05/02 A2997 RMK A01 T00460020  RH  083%=      5-min Rain = 0
KBI1 140016Z 17011KT 05/02 A2997 RMK A01 T00460020  RH  083%=      5-min Rain = 0
KBI1 140017Z 17012KT 05/02 A2997 RMK A01 T00460020  RH  083%=      5-min Rain = 0
KBI1 140018Z 17011KT 05/02 A2997 RMK A01 T00460020  RH  083%=      5-min Rain = 0
KBI1 140019Z 17013KT 05/02 A2997 RMK A01 T00460020  RH  083%=      5-min Rain = 0
KBI1 140020Z 17014KT 05/02 A2997 RMK A01 T00460020  RH  083%=      5-min Rain = 0
KBI1 140021Z 17012KT 05/02 A2997 RMK A01 T00460019  RH  083%=      5-min Rain = 0
KBI1 140022Z 17012KT 05/02 A2997 RMK A01 T00460019  RH  083%=      5-min Rain = 0
KBI1 140023Z 17010KT 05/02 A2997 RMK A01 T00460019  RH  083%=      5-min Rain = 0
KBI1 140024Z 17012KT 05/02 A2997 RMK A01 T00460019  RH  083%=      5-min Rain = 0
KBI1 140025Z 17012KT 05/02 A2997 RMK A01 T00460019  RH  083%=      5-min Rain = 0
KBI1 140026Z 17010KT 05/02 A2997 RMK A01 T00460019  RH  083%=      5-min Rain = 0
KBI1 140027Z 17011KT 05/02 A2997 RMK A01 T00460019  RH  083%=      5-min Rain = 0
KBI1 140028Z 17010KT 05/02 A2997 RMK A01 T00460019  RH  083%=      5-min Rain = 0
KBI1 140029Z 18009KT 05/02 A2997 RMK A01 T00460019  RH  083%=      5-min Rain = 0
KBI1 140030Z 17011KT 05/02 A2997 RMK A01 T00460019  RH  083%=      5-min Rain = 0
KBI1 140031Z 17009KT 05/02 A2997 RMK A01 T00460019  RH  083%=      5-min Rain = 0
KBI1 140032Z 18012KT 05/02 A2997 RMK A01 T00460019  RH  083%=      5-min Rain = 0
KBI1 140033Z 17011KT 05/02 A2997 RMK A01 T00460019  RH  083%=      5-min Rain = 0
KBI1 140034Z 18011KT 05/02 A2997 RMK A01 T00460019  RH  083%=      5-min Rain = 0
KBI1 140035Z 17013KT 05/02 A2997 RMK A01 T00460018  RH  083%=      5-min Rain = 0
KBI1 140036Z 17009KT 05/02 A2997 RMK A01 T00460018  RH  082%=      5-min Rain = 0
KBI1 140037Z 17009KT 05/02 A2997 RMK A01 T00460018  RH  082%=      5-min Rain = 0
KBI1 140038Z 18010KT 05/02 A2997 RMK A01 T00460018  RH  082%=      5-min Rain = 0
KBI1 140039Z 18009KT 05/02 A2997 RMK A01 T00460018  RH  082%=      5-min Rain = 0
KBI1 140040Z 17011KT 05/02 A2997 RMK A01 T00460018  RH  082%=      5-min Rain = 0
KBI1 140041Z 17010KT 05/02 A2997 RMK A01 T00460018  RH  082%=      5-min Rain = 0
KBI1 140042Z 18009KT 05/02 A2997 RMK A01 T00460018  RH  082%=      5-min Rain = 0
KBI1 140043Z 18009KT 05/02 A2998 RMK A01 T00460018  RH  082%=      5-min Rain = 0
KBI1 140044Z 18009KT 05/02 A2998 RMK A01 T00460018  RH  082%=      5-min Rain = 0
KBI1 140045Z 17011KT 05/02 A2998 RMK A01 T00460018  RH  082%=      5-min Rain = 0
KBI1 140046Z 17010KT 05/02 A2998 RMK A01 T00460018  RH  082%=      5-min Rain = 0
KBI1 140047Z 18010KT 05/02 A2998 RMK A01 T00460018  RH  082%=      5-min Rain = 0
KBI1 140048Z 18011KT 05/02 A2998 RMK A01 T00460018  RH  082%=      5-min Rain = 0
KBI1 140049Z 17010KT 05/02 A2998 RMK A01 T00460018  RH  082%=      5-min Rain = 0
KBI1 140050Z 17011KT 05/02 A2998 RMK A01 T00460018  RH  082%=      5-min Rain = 0
KBI1 140051Z 18010KT 05/02 A2998 RMK A01 T00460018  RH  082%=      5-min Rain = 0
KBI1 140052Z 18010KT 05/02 A2998 RMK A01 T00460018  RH  082%=      5-min Rain = 0
KBI1 140053Z 18008KT 05/02 A2998 RMK A01 T00460018  RH  082%=      5-min Rain = 0
KBI1 140054Z 18009KT 05/02 A2998 RMK A01 T00460018  RH  082%=      5-min Rain = 0
KBI1 140055Z 18009KT 05/02 A2998 RMK A01 T00460018  RH  082%=      5-min Rain = 0
KBI1 140056Z 18009KT 05/02 A2998 RMK A01 T00460018  RH  082%=      5-min Rain = 0
KBI1 140057Z 18008KT 05/02 A2998 RMK A01 T00460018  RH  082%=      5-min Rain = 0
KBI1 140058Z 18009KT 05/02 A2998 RMK A01 T00460018  RH  082%=      5-min Rain = 0
KBI1 140059Z 18009KT 05/02 A2998 RMK A01 T00460018  RH  082%=      5-min Rain = 0
KBI1 140100Z 18009KT 05/02 A2998 RMK A01 T00460018  RH  082%=      5-min Rain = 0
KBI1 140101Z 18009KT 05/02 A2998 RMK A01 T00460018  RH  082%=      5-min Rain = 0
KBI1 140102Z 19008KT 05/02 A2998 RMK A01 T00460018  RH  082%=      5-min Rain = 0
KBI1 140103Z 18008KT 05/02 A2998 RMK A01 T00460018  RH  082%=      5-min Rain = 0
KBI1 140104Z 18008KT 05/02 A2998 RMK A01 T00460018  RH  082%=      5-min Rain = 0
KBI1 140105Z 18010KT 05/02 A2998 RMK A01 T00460018  RH  082%=      5-min Rain = 0
KBI1 140106Z 18010KT 05/02 A2998 RMK A01 T00460017  RH  082%=      5-min Rain = 0
KBI1 140107Z 18010KT 05/02 A2999 RMK A01 T00460017  RH  082%=      5-min Rain = 0
KBI1 140108Z 18011KT 05/02 A2999 RMK A01 T00470018  RH  082%=      5-min Rain = 0
KBI1 140109Z 19009KT 05/02 A2999 RMK A01 T00460017  RH  081%=      5-min Rain = 0
KBI1 140110Z 18008KT 05/02 A2999 RMK A01 T00470018  RH  081%=      5-min Rain = 0
KBI1 140111Z 18008KT 05/02 A2999 RMK A01 T00470017  RH  081%=      5-min Rain = 0
KBI1 140112Z 18009KT 05/02 A2999 RMK A01 T00460017  RH  081%=      5-min Rain = 0
KBI1 140113Z 18009KT 05/02 A2999 RMK A01 T00470017  RH  081%=      5-min Rain = 0
KBI1 140114Z 18007KT 05/02 A2999 RMK A01 T00470018  RH  081%=      5-min Rain = 0
KBI1 140115Z 18008KT 05/02 A2999 RMK A01 T00470017  RH  081%=      5-min Rain = 0
KBI1 140116Z 18007KT 05/02 A2999 RMK A01 T00470018  RH  081%=      5-min Rain = 0
KBI1 140117Z 18007KT 05/02 A30 RMK A01 T00470017  RH  081%=      5-min Rain = 0
KBI1 140118Z 18008KT 05/02 A30 RMK A01 T00470018  RH  081%=      5-min Rain = 0
KBI1 140119Z 18009KT 05/02 A30 RMK A01 T00470017  RH  081%=      5-min Rain = 0
KBI1 140120Z 18008KT 05/02 A30 RMK A01 T00470017  RH  081%=      5-min Rain = 0
KBI1 140121Z 19006KT 05/02 A30 RMK A01 T00470017  RH  081%=      5-min Rain = 0
KBI1 140122Z 18008KT 05/02 A30 RMK A01 T00470017  RH  081%=      5-min Rain = 0
KBI1 140123Z 17008KT 05/02 A30 RMK A01 T00470017  RH  081%=      5-min Rain = 0
KBI1 140124Z 18009KT 05/02 A30 RMK A01 T00470017  RH  081%=      5-min Rain = 0
KBI1 140125Z 18010KT 05/02 A30 RMK A01 T00470017  RH  081%=      5-min Rain = 0
KBI1 140126Z 18010KT 05/02 A30 RMK A01 T00480017  RH  081%=      5-min Rain = 0
KBI1 140127Z 18009KT 05/02 A3001 RMK A01 T00480017  RH  081%=      5-min Rain = 0
KBI1 140128Z 18010KT 05/02 A3001 RMK A01 T00470017  RH  081%=      5-min Rain = 0
KBI1 140129Z 18009KT 05/02 A3001 RMK A01 T00480017  RH  081%=      5-min Rain = 0
KBI1 140130Z 18009KT 05/02 A3001 RMK A01 T00480017  RH  081%=      5-min Rain = 0
KBI1 140131Z 18010KT 05/02 A3001 RMK A01 T00480017  RH  081%=      5-min Rain = 0
KBI1 140132Z 18008KT 05/02 A3001 RMK A01 T00470017  RH  081%=      5-min Rain = 0
KBI1 140133Z 18009KT 05/02 A30 RMK A01 T00470017  RH  081%=      5-min Rain = 0
KBI1 140134Z 18009KT 05/02 A30 RMK A01 T00480017  RH  081%=      5-min Rain = 0
KBI1 140135Z 18008KT 05/02 A30 RMK A01 T00480017  RH  081%=      5-min Rain = 0
KBI1 140136Z 18007KT 05/02 A3001 RMK A01 T00470017  RH  081%=      5-min Rain = 0
KBI1 140137Z 18007KT 05/02 A3001 RMK A01 T00470017  RH  081%=      5-min Rain = 0
KBI1 140138Z 18008KT 05/02 A30 RMK A01 T00470017  RH  081%=      5-min Rain = 0
KBI1 140139Z 18008KT 05/02 A3001 RMK A01 T00470017  RH  081%=      5-min Rain = 0
KBI1 140140Z 18007KT 05/02 A3001 RMK A01 T00470017  RH  081%=      5-min Rain = 0
KBI1 140141Z 18008KT 05/02 A3001 RMK A01 T00470017  RH  081%=      5-min Rain = 0
KBI1 140142Z 18007KT 05/02 A3001 RMK A01 T00470017  RH  081%=      5-min Rain = 0
KBI1 140143Z 17007KT 05/02 A3001 RMK A01 T00470017  RH  081%=      5-min Rain = 0
KBI1 140144Z 19007KT 05/02 A3001 RMK A01 T00470017  RH  081%=      5-min Rain = 0
KBI1 140145Z 18008KT 05/02 A3001 RMK A01 T00470018  RH  081%=      5-min Rain = 0
KBI1 140146Z 17008KT 05/02 A3001 RMK A01 T00470017  RH  081%=      5-min Rain = 0
KBI1 140147Z 18008KT 05/02 A3001 RMK A01 T00470017  RH  081%=      5-min Rain = 0
KBI1 140148Z 17007KT 05/02 A3001 RMK A01 T00470017  RH  081%=      5-min Rain = 0
KBI1 140149Z 17008KT 05/02 A30 RMK A01 T00470017  RH  081%=      5-min Rain = 0
KBI1 140150Z 17007KT 05/02 A30 RMK A01 T00470017  RH  081%=      5-min Rain = 0
KBI1 140151Z 17006KT 05/02 A30 RMK A01 T00470017  RH  081%=      5-min Rain = 0
KBI1 140152Z 16006KT 05/02 A30 RMK A01 T00470017  RH  081%=      5-min Rain = 0
KBI1 140153Z 17007KT 05/02 A30 RMK A01 T00470017  RH  081%=      5-min Rain = 0
KBI1 140154Z 17007KT 05/02 A30 RMK A01 T00470017  RH  081%=      5-min Rain = 0
KBI1 140155Z 17006KT 05/02 A30 RMK A01 T00470017  RH  081%=      5-min Rain = 0
KBI1 140156Z 17006KT 05/02 A30 RMK A01 T00460017  RH  081%=      5-min Rain = 0
KBI1 140157Z 17006KT 05/02 A30 RMK A01 T00470017  RH  081%=      5-min Rain = 0
KBI1 140158Z 17008KT 05/02 A30 RMK A01 T00460017  RH  081%=      5-min Rain = 0
KBI1 140159Z 17008KT 05/02 A30 RMK A01 T00460017  RH  082%=      5-min Rain = 0
KBI1 140200Z 17008KT 05/02 A30 RMK A01 T00460017  RH  082%=      5-min Rain = 0
KBI1 140201Z 17009KT 05/02 A30 RMK A01 T00460017  RH  081%=      5-min Rain = 0
KBI1 140202Z 17008KT 05/02 A30 RMK A01 T00460017  RH  082%=      5-min Rain = 0
KBI1 140203Z 17008KT 05/02 A30 RMK A01 T00460018  RH  082%=      5-min Rain = 0
KBI1 140204Z 17008KT 05/02 A30 RMK A01 T00460017  RH  082%=      5-min Rain = 0
KBI1 140205Z 17008KT 05/02 A30 RMK A01 T00460017  RH  082%=      5-min Rain = 0
KBI1 140206Z 17008KT 05/02 A30 RMK A01 T00460018  RH  082%=      5-min Rain = 0
KBI1 140207Z 17008KT 05/02 A30 RMK A01 T00450017  RH  082%=      5-min Rain = 0
KBI1 140208Z 16008KT 05/02 A30 RMK A01 T00450017  RH  082%=      5-min Rain = 0
KBI1 140209Z 17009KT 05/02 A30 RMK A01 T00460017  RH  082%=      5-min Rain = 0
KBI1 140210Z 16008KT 05/02 A30 RMK A01 T00460018  RH  082%=      5-min Rain = 0
KBI1 140211Z 16009KT 05/02 A30 RMK A01 T00450017  RH  082%=      5-min Rain = 0
KBI1 140212Z 16009KT 05/02 A30 RMK A01 T00460018  RH  082%=      5-min Rain = 0
KBI1 140213Z 16009KT 05/02 A30 RMK A01 T00460018  RH  082%=      5-min Rain = 0
KBI1 140214Z 17009KT 05/02 A30 RMK A01 T00460018  RH  082%=      5-min Rain = 0
KBI1 140215Z 17008KT 05/02 A30 RMK A01 T00460018  RH  082%=      5-min Rain = 0
KBI1 140216Z 17009KT 05/02 A3001 RMK A01 T00460018  RH  082%=      5-min Rain = 0
KBI1 140217Z 17009KT 05/02 A3001 RMK A01 T00450018  RH  082%=      5-min Rain = 0
KBI1 140218Z 17009KT 05/02 A3001 RMK A01 T00460018  RH  082%=      5-min Rain = 0
KBI1 140219Z 17009KT 05/02 A3001 RMK A01 T00460018  RH  082%=      5-min Rain = 0
KBI1 140220Z 17009KT 05/02 A3001 RMK A01 T00460018  RH  082%=      5-min Rain = 0
KBI1 140221Z 17010KT 05/02 A3001 RMK A01 T00460018  RH  082%=      5-min Rain = 0
KBI1 140222Z 17010KT 05/02 A3001 RMK A01 T00460018  RH  082%=      5-min Rain = 0
KBI1 140223Z 17010KT 05/02 A3001 RMK A01 T00460018  RH  082%=      5-min Rain = 0
KBI1 140224Z 17009KT 05/02 A3001 RMK A01 T00460018  RH  082%=      5-min Rain = 0
KBI1 140225Z 17010KT 05/02 A3001 RMK A01 T00460018  RH  082%=      5-min Rain = 0
KBI1 140226Z 17010KT 05/02 A3001 RMK A01 T00460018  RH  082%=      5-min Rain = 0
KBI1 140227Z 17008KT 05/02 A3001 RMK A01 T00450018  RH  083%=      5-min Rain = 0
KBI1 140228Z 17008KT 05/02 A3001 RMK A01 T00450018  RH  083%=      5-min Rain = 0
KBI1 140229Z 16010KT 05/02 A3001 RMK A01 T00450018  RH  083%=      5-min Rain = 0
KBI1 140230Z 16008KT 05/02 A3001 RMK A01 T00450018  RH  083%=      5-min Rain = 0
KBI1 140231Z 17007KT 05/02 A3001 RMK A01 T00450018  RH  083%=      5-min Rain = 0
KBI1 140232Z 17011KT 05/02 A3001 RMK A01 T00450018  RH  083%=      5-min Rain = 0
KBI1 140233Z 17010KT 04/02 A3001 RMK A01 T00440018  RH  083%=      5-min Rain = 0
KBI1 140234Z 17009KT 04/02 A3001 RMK A01 T00440018  RH  083%=      5-min Rain = 0
KBI1 140235Z 17009KT 04/02 A3001 RMK A01 T00440018  RH  083%=      5-min Rain = 0
KBI1 140236Z 16010KT 04/02 A3001 RMK A01 T00440018  RH  083%=      5-min Rain = 0
KBI1 140237Z 17009KT 04/02 A3001 RMK A01 T00440018  RH  083%=      5-min Rain = 0
KBI1 140238Z 16009KT 04/02 A3001 RMK A01 T00440018  RH  083%=      5-min Rain = 0
KBI1 140239Z 17010KT 04/02 A3001 RMK A01 T00440019  RH  084%=      5-min Rain = 0
KBI1 140240Z 16010KT 04/02 A3001 RMK A01 T00440018  RH  084%=      5-min Rain = 0
KBI1 140241Z 17012KT 04/02 A3001 RMK A01 T00440019  RH  084%=      5-min Rain = 0
KBI1 140242Z 17010KT 04/02 A3001 RMK A01 T00440018  RH  084%=      5-min Rain = 0
KBI1 140243Z 16008KT 04/02 A3001 RMK A01 T00430018  RH  084%=      5-min Rain = 0
KBI1 140244Z 17009KT 04/02 A3001 RMK A01 T00430018  RH  084%=      5-min Rain = 0
KBI1 140245Z 17009KT 04/02 A3001 RMK A01 T00430018  RH  084%=      5-min Rain = 0
KBI1 140246Z 17009KT 04/02 A3001 RMK A01 T00430018  RH  084%=      5-min Rain = 0
KBI1 140247Z 17010KT 04/02 A3002 RMK A01 T00430018  RH  084%=      5-min Rain = 0
KBI1 140248Z 17009KT 04/02 A3002 RMK A01 T00430018  RH  084%=      5-min Rain = 0
KBI1 140249Z 17009KT 04/02 A3002 RMK A01 T00430018  RH  084%=      5-min Rain = 0
KBI1 140250Z 17008KT 04/02 A3002 RMK A01 T00430018  RH  084%=      5-min Rain = 0
KBI1 140251Z 17009KT 04/02 A3002 RMK A01 T00420017  RH  084%=      5-min Rain = 0
KBI1 140252Z 17010KT 04/02 A3002 RMK A01 T00430018  RH  084%=      5-min Rain = 0
KBI1 140253Z 18009KT 04/02 A3002 RMK A01 T00420017  RH  084%=      5-min Rain = 0
KBI1 140254Z 17008KT 04/02 A3002 RMK A01 T00430017  RH  084%=      5-min Rain = 0
KBI1 140255Z 17011KT 04/02 A3002 RMK A01 T00420017  RH  084%=      5-min Rain = 0
KBI1 140256Z 17008KT 04/02 A3002 RMK A01 T00420017  RH  084%=      5-min Rain = 0
KBI1 140257Z 16008KT 04/02 A3002 RMK A01 T00420017  RH  084%=      5-min Rain = 0
KBI1 140258Z 17008KT 04/02 A3002 RMK A01 T00420017  RH  084%=      5-min Rain = 0
KBI1 140259Z 16008KT 04/02 A3002 RMK A01 T00420017  RH  084%=      5-min Rain = 0
KBI1 140300Z 17008KT 04/02 A3002 RMK A01 T00410017  RH  084%=      5-min Rain = 0
KBI1 140301Z 17011KT 04/02 A3002 RMK A01 T00410017  RH  084%=      5-min Rain = 0
KBI1 140302Z 17011KT 04/02 A3002 RMK A01 T00410017  RH  084%=      5-min Rain = 0
KBI1 140303Z 17010KT 04/02 A3002 RMK A01 T00410017  RH  084%=      5-min Rain = 0
KBI1 140304Z 17011KT 04/02 A3002 RMK A01 T00410017  RH  084%=      5-min Rain = 0
KBI1 140305Z 17011KT 04/02 A3002 RMK A01 T00410017  RH  084%=      5-min Rain = 0
KBI1 140306Z 18010KT 04/02 A3003 RMK A01 T00410017  RH  084%=      5-min Rain = 0
KBI1 140307Z 17009KT 04/02 A3003 RMK A01 T00410017  RH  084%=      5-min Rain = 0
KBI1 140308Z 18009KT 04/02 A3003 RMK A01 T00400016  RH  084%=      5-min Rain = 0
KBI1 140309Z 18010KT 04/02 A3003 RMK A01 T00400016  RH  084%=      5-min Rain = 0
KBI1 140310Z 17008KT 04/02 A3003 RMK A01 T00400016  RH  084%=      5-min Rain = 0
KBI1 140311Z 17011KT 04/02 A3003 RMK A01 T00400016  RH  084%=      5-min Rain = 0
KBI1 140312Z 17010KT 04/02 A3003 RMK A01 T00400016  RH  084%=      5-min Rain = 0
KBI1 140313Z 17009KT 04/02 A3003 RMK A01 T00400016  RH  084%=      5-min Rain = 0
KBI1 140314Z 17009KT 04/02 A3003 RMK A01 T00400016  RH  084%=      5-min Rain = 0
KBI1 140315Z 17009KT 04/02 A3003 RMK A01 T00400015  RH  084%=      5-min Rain = 0
KBI1 140316Z 17009KT 04/02 A3003 RMK A01 T00400016  RH  084%=      5-min Rain = 0
KBI1 140317Z 18009KT 04/02 A3003 RMK A01 T00400016  RH  084%=      5-min Rain = 0
KBI1 140318Z 18009KT 04/02 A3003 RMK A01 T00390015  RH  084%=      5-min Rain = 0
KBI1 140319Z 17007KT 04/02 A3003 RMK A01 T00390015  RH  084%=      5-min Rain = 0
KBI1 140320Z 18008KT 04/02 A3003 RMK A01 T00390015  RH  085%=      5-min Rain = 0
KBI1 140321Z 17008KT 04/02 A3003 RMK A01 T00390015  RH  085%=      5-min Rain = 0
KBI1 140322Z 17007KT 04/02 A3003 RMK A01 T00390015  RH  085%=      5-min Rain = 0
KBI1 140323Z 18008KT 04/02 A3003 RMK A01 T00380015  RH  085%=      5-min Rain = 0
KBI1 140324Z 18008KT 04/02 A3004 RMK A01 T00380015  RH  085%=      5-min Rain = 0
KBI1 140325Z 18007KT 04/02 A3004 RMK A01 T00380015  RH  085%=      5-min Rain = 0
KBI1 140326Z 18008KT 04/02 A3003 RMK A01 T00380015  RH  085%=      5-min Rain = 0
KBI1 140327Z 17009KT 04/02 A3003 RMK A01 T00380015  RH  085%=      5-min Rain = 0
KBI1 140328Z 17008KT 04/02 A3003 RMK A01 T00380015  RH  085%=      5-min Rain = 0
KBI1 140329Z 17009KT 04/02 A3003 RMK A01 T00380015  RH  085%=      5-min Rain = 0
KBI1 140330Z 17008KT 04/02 A3003 RMK A01 T00380015  RH  085%=      5-min Rain = 0
KBI1 140331Z 17010KT 04/02 A3003 RMK A01 T00370015  RH  085%=      5-min Rain = 0
KBI1 140332Z 17009KT 04/02 A3003 RMK A01 T00370015  RH  085%=      5-min Rain = 0
KBI1 140333Z 17009KT 04/01 A3003 RMK A01 T00370014  RH  085%=      5-min Rain = 0
KBI1 140334Z 17009KT 04/01 A3003 RMK A01 T00370014  RH  085%=      5-min Rain = 0
KBI1 140335Z 18008KT 04/01 A3003 RMK A01 T00360014  RH  085%=      5-min Rain = 0
KBI1 140336Z 18009KT 04/01 A3003 RMK A01 T00360014  RH  086%=      5-min Rain = 0
KBI1 140337Z 18007KT 04/01 A3003 RMK A01 T00360014  RH  086%=      5-min Rain = 0
KBI1 140338Z 18009KT 04/01 A3003 RMK A01 T00350014  RH  086%=      5-min Rain = 0
KBI1 140339Z 18008KT 04/01 A3003 RMK A01 T00350014  RH  086%=      5-min Rain = 0
KBI1 140340Z 18009KT 04/01 A3003 RMK A01 T00350014  RH  086%=      5-min Rain = 0
KBI1 140341Z 18008KT 04/01 A3003 RMK A01 T00350014  RH  086%=      5-min Rain = 0
KBI1 140342Z 18007KT 04/01 A3003 RMK A01 T00350014  RH  086%=      5-min Rain = 0
KBI1 140343Z 18008KT 03/01 A3003 RMK A01 T00340014  RH  086%=      5-min Rain = 0
KBI1 140344Z 18009KT 03/01 A3003 RMK A01 T00340014  RH  086%=      5-min Rain = 0
KBI1 140345Z 17008KT 03/01 A3003 RMK A01 T00340014  RH  087%=      5-min Rain = 0
KBI1 140346Z 17009KT 03/01 A3003 RMK A01 T00340014  RH  087%=      5-min Rain = 0
KBI1 140347Z 17010KT 03/01 A3003 RMK A01 T00340014  RH  087%=      5-min Rain = 0
KBI1 140348Z 17010KT 03/01 A3003 RMK A01 T00340014  RH  087%=      5-min Rain = 0
KBI1 140349Z 17009KT 03/01 A3003 RMK A01 T00340014  RH  087%=      5-min Rain = 0
KBI1 140350Z 17008KT 03/01 A3003 RMK A01 T00340014  RH  087%=      5-min Rain = 0
KBI1 140351Z 17009KT 03/01 A3003 RMK A01 T00340014  RH  087%=      5-min Rain = 0
KBI1 140352Z 17009KT 03/01 A3003 RMK A01 T00340014  RH  087%=      5-min Rain = 0
KBI1 140353Z 17008KT 03/01 A3003 RMK A01 T00340014  RH  087%=      5-min Rain = 0
KBI1 140354Z 17008KT 03/01 A3003 RMK A01 T00340014  RH  087%=      5-min Rain = 0
KBI1 140355Z 17009KT 03/01 A3003 RMK A01 T00340014  RH  087%=      5-min Rain = 0
KBI1 140356Z 18009KT 03/01 A3003 RMK A01 T00340014  RH  087%=      5-min Rain = 0
KBI1 140357Z 18007KT 03/01 A3003 RMK A01 T00340014  RH  087%=      5-min Rain = 0
KBI1 140358Z 18008KT 03/01 A3004 RMK A01 T00330013  RH  087%=      5-min Rain = 0
KBI1 140359Z 18007KT 03/01 A3004 RMK A01 T00330013  RH  087%=      5-min Rain = 0
KBI1 140400Z 18007KT 03/01 A3004 RMK A01 T00330013  RH  087%=      5-min Rain = 0
KBI1 140401Z 18007KT 03/01 A3004 RMK A01 T00320013  RH  087%=      5-min Rain = 0
KBI1 140402Z 18006KT 03/01 A3004 RMK A01 T00320012  RH  087%=      5-min Rain = 0
KBI1 140403Z 18008KT 03/01 A3004 RMK A01 T00310012  RH  087%=      5-min Rain = 0
KBI1 140404Z 18008KT 03/01 A3004 RMK A01 T00310012  RH  087%=      5-min Rain = 0
KBI1 140405Z 18007KT 03/01 A3004 RMK A01 T00310013  RH  088%=      5-min Rain = 0
KBI1 140406Z 18007KT 03/01 A3004 RMK A01 T00310013  RH  088%=      5-min Rain = 0
KBI1 140407Z 17007KT 03/01 A3004 RMK A01 T00310013  RH  088%=      5-min Rain = 0
KBI1 140408Z 18006KT 03/01 A3004 RMK A01 T00310013  RH  088%=      5-min Rain = 0
KBI1 140409Z 18006KT 03/01 A3004 RMK A01 T00310013  RH  088%=      5-min Rain = 0
KBI1 140410Z 17006KT 03/01 A3004 RMK A01 T00300012  RH  088%=      5-min Rain = 0
KBI1 140411Z 17007KT 03/01 A3004 RMK A01 T00300012  RH  088%=      5-min Rain = 0
KBI1 140412Z 17006KT 03/01 A3004 RMK A01 T00300013  RH  088%=      5-min Rain = 0
KBI1 140413Z 18006KT 03/01 A3004 RMK A01 T00300012  RH  088%=      5-min Rain = 0
KBI1 140414Z 18006KT 03/01 A3004 RMK A01 T00290012  RH  088%=      5-min Rain = 0
KBI1 140415Z 17006KT 03/01 A3004 RMK A01 T00290012  RH  088%=      5-min Rain = 0
KBI1 140416Z 17006KT 03/01 A3004 RMK A01 T00290012  RH  088%=      5-min Rain = 0
KBI1 140417Z 18007KT 03/01 A3004 RMK A01 T00290012  RH  089%=      5-min Rain = 0
KBI1 140418Z 18006KT 03/01 A3004 RMK A01 T00290012  RH  089%=      5-min Rain = 0
KBI1 140419Z 17007KT 03/01 A3004 RMK A01 T00290012  RH  089%=      5-min Rain = 0
KBI1 140420Z 17006KT 03/01 A3004 RMK A01 T00290012  RH  089%=      5-min Rain = 0
KBI1 140421Z 17006KT 03/01 A3004 RMK A01 T00280012  RH  089%=      5-min Rain = 0
KBI1 140422Z 17006KT 03/01 A3004 RMK A01 T00280012  RH  089%=      5-min Rain = 0
KBI1 140423Z 17006KT 03/01 A3004 RMK A01 T00280012  RH  089%=      5-min Rain = 0
KBI1 140424Z 17006KT 03/01 A3004 RMK A01 T00280012  RH  089%=      5-min Rain = 0
KBI1 140425Z 17006KT 03/01 A3004 RMK A01 T00280012  RH  089%=      5-min Rain = 0
KBI1 140426Z 17005KT 03/01 A3004 RMK A01 T00280012  RH  089%=      5-min Rain = 0
KBI1 140427Z 16004KT 03/01 A3004 RMK A01 T00280012  RH  089%=      5-min Rain = 0
KBI1 140428Z 16005KT 03/01 A3004 RMK A01 T00280012  RH  089%=      5-min Rain = 0
KBI1 140429Z 17005KT 03/01 A3004 RMK A01 T00280012  RH  089%=      5-min Rain = 0
KBI1 140430Z 17006KT 03/01 A3004 RMK A01 T00280012  RH  089%=      5-min Rain = 0
KBI1 140431Z 16005KT 03/01 A3005 RMK A01 T00280012  RH  089%=      5-min Rain = 0
KBI1 140432Z 17006KT 03/01 A3005 RMK A01 T00270011  RH  089%=      5-min Rain = 0
KBI1 140433Z 17006KT 03/01 A3004 RMK A01 T00280012  RH  089%=      5-min Rain = 0
KBI1 140434Z 17006KT 03/01 A3004 RMK A01 T00270012  RH  089%=      5-min Rain = 0
KBI1 140435Z 17006KT 03/01 A3004 RMK A01 T00280012  RH  089%=      5-min Rain = 0
KBI1 140436Z 18007KT 03/01 A3004 RMK A01 T00270011  RH  089%=      5-min Rain = 0
KBI1 140437Z 17008KT 03/01 A3004 RMK A01 T00270011  RH  089%=      5-min Rain = 0
KBI1 140438Z 17007KT 03/01 A3004 RMK A01 T00270011  RH  090%=      5-min Rain = 0
KBI1 140439Z 17008KT 03/01 A3004 RMK A01 T00270012  RH  090%=      5-min Rain = 0
KBI1 140440Z 17007KT 03/01 A3004 RMK A01 T00270011  RH  090%=      5-min Rain = 0
KBI1 140441Z 17007KT 03/01 A3004 RMK A01 T00260011  RH  090%=      5-min Rain = 0
KBI1 140442Z 17007KT 03/01 A3004 RMK A01 T00270012  RH  090%=      5-min Rain = 0
KBI1 140443Z 17008KT 03/01 A3004 RMK A01 T00270012  RH  090%=      5-min Rain = 0
KBI1 140444Z 16006KT 03/01 A3004 RMK A01 T00260012  RH  090%=      5-min Rain = 0
KBI1 140445Z 17008KT 03/01 A3004 RMK A01 T00260011  RH  090%=      5-min Rain = 0
KBI1 140446Z 17006KT 03/01 A3004 RMK A01 T00260011  RH  090%=      5-min Rain = 0
KBI1 140447Z 17007KT 03/01 A3004 RMK A01 T00260011  RH  090%=      5-min Rain = 0
KBI1 140448Z 17006KT 03/01 A3004 RMK A01 T00260011  RH  090%=      5-min Rain = 0
KBI1 140449Z 17007KT 03/01 A3004 RMK A01 T00250011  RH  090%=      5-min Rain = 0
KBI1 140450Z 16008KT 03/01 A3004 RMK A01 T00260011  RH  090%=      5-min Rain = 0
KBI1 140451Z 17009KT 03/01 A3004 RMK A01 T00260011  RH  090%=      5-min Rain = 0
KBI1 140452Z 17008KT 03/01 A3004 RMK A01 T00260012  RH  090%=      5-min Rain = 0
KBI1 140453Z 17010KT 03/01 A3004 RMK A01 T00250011  RH  090%=      5-min Rain = 0
KBI1 140454Z 18009KT 03/01 A3004 RMK A01 T00260012  RH  090%=      5-min Rain = 0
KBI1 140455Z 17009KT 03/01 A3004 RMK A01 T00260011  RH  090%=      5-min Rain = 0
KBI1 140456Z 17009KT 03/01 A3004 RMK A01 T00250011  RH  090%=      5-min Rain = 0
KBI1 140457Z 17007KT 03/01 A3004 RMK A01 T00250011  RH  090%=      5-min Rain = 0
KBI1 140458Z 17008KT 03/01 A3004 RMK A01 T00260012  RH  090%=      5-min Rain = 0
KBI1 140459Z 17007KT 03/01 A3004 RMK A01 T00250011  RH  090%=      5-min Rain = 0
KBI1 140500Z 17009KT 03/01 A3004 RMK A01 T00250011  RH  091%=      5-min Rain = 0
KBI1 140501Z 17008KT 03/01 A3004 RMK A01 T00250011  RH  091%=      5-min Rain = 0
KBI1 140502Z 17010KT 03/01 A3004 RMK A01 T00250011  RH  091%=      5-min Rain = 0
KBI1 140503Z 17010KT 03/01 A3004 RMK A01 T00250011  RH  091%=      5-min Rain = 0
KBI1 140504Z 17012KT 03/01 A3004 RMK A01 T00250011  RH  091%=      5-min Rain = 0
KBI1 140505Z 17010KT 03/01 A3004 RMK A01 T00250011  RH  091%=      5-min Rain = 0
KBI1 140506Z 17010KT 03/01 A3004 RMK A01 T00250011  RH  091%=      5-min Rain = 0
KBI1 140507Z 17011KT 03/01 A3004 RMK A01 T00250011  RH  091%=      5-min Rain = 0
KBI1 140508Z 17010KT 03/01 A3004 RMK A01 T00250011  RH  091%=      5-min Rain = 0
KBI1 140509Z 17009KT 02/01 A3004 RMK A01 T00240011  RH  091%=      5-min Rain = 0
KBI1 140510Z 17011KT 02/01 A3004 RMK A01 T00240011  RH  091%=      5-min Rain = 0
KBI1 140511Z 17010KT 02/01 A3004 RMK A01 T00240011  RH  091%=      5-min Rain = 0
KBI1 140512Z 17010KT 02/01 A3004 RMK A01 T00240011  RH  091%=      5-min Rain = 0
KBI1 140513Z 17011KT 02/01 A3004 RMK A01 T00240011  RH  091%=      5-min Rain = 0
KBI1 140514Z 17011KT 02/01 A3004 RMK A01 T00240011  RH  091%=      5-min Rain = 0
KBI1 140515Z 17010KT 02/01 A3004 RMK A01 T00240011  RH  091%=      5-min Rain = 0
KBI1 140516Z 17011KT 02/01 A3004 RMK A01 T00230011  RH  091%=      5-min Rain = 0
KBI1 140517Z 17011KT 02/01 A3004 RMK A01 T00230011  RH  091%=      5-min Rain = 0
KBI1 140518Z 16011KT 02/01 A3004 RMK A01 T00230011  RH  092%=      5-min Rain = 0
KBI1 140519Z 17012KT 02/01 A3004 RMK A01 T00230011  RH  092%=      5-min Rain = 0
KBI1 140520Z 17010KT 02/01 A3004 RMK A01 T00230011  RH  092%=      5-min Rain = 0
KBI1 140521Z 17011KT 02/01 A3004 RMK A01 T00230011  RH  092%=      5-min Rain = 0
KBI1 140522Z 17011KT 02/01 A3004 RMK A01 T00230012  RH  092%=      5-min Rain = 0
KBI1 140523Z 17011G16KT 02/01 A3004 RMK A01 T00230012  RH  092%=      5-min Rain = 0
KBI1 140524Z 17013G18KT 02/01 A3003 RMK A01 T00230012  RH  092%=      5-min Rain = 0
KBI1 140525Z 17014KT 02/01 A3003 RMK A01 T00230012  RH  092%=      5-min Rain = 0
KBI1 140526Z 17011KT 02/01 A3003 RMK A01 T00230012  RH  092%=      5-min Rain = 0
KBI1 140527Z 17011G17KT 02/01 A3003 RMK A01 T00230012  RH  092%=      5-min Rain = 0
KBI1 140528Z 18012KT 02/01 A3003 RMK A01 T00230012  RH  092%=      5-min Rain = 0
KBI1 140529Z 17013KT 02/01 A3003 RMK A01 T00230012  RH  093%=      5-min Rain = 0
KBI1 140530Z 17010KT 02/01 A3004 RMK A01 T00230013  RH  093%=      5-min Rain = 0
KBI1 140531Z 18015KT 02/01 A3004 RMK A01 T00230013  RH  093%=      5-min Rain = 0
KBI1 140532Z 17015KT 02/01 A3004 RMK A01 T00230013  RH  093%=      5-min Rain = 0
KBI1 140533Z 17013KT 02/01 A3004 RMK A01 T00230013  RH  093%=      5-min Rain = 0
KBI1 140534Z 18016KT 02/01 A3004 RMK A01 T00230013  RH  093%=      5-min Rain = 0
KBI1 140535Z 17014KT 02/01 A3004 RMK A01 T00230013  RH  093%=      5-min Rain = 0
KBI1 140536Z 18014G19KT 02/01 A3004 RMK A01 T00230013  RH  093%=      5-min Rain = 0
KBI1 140537Z 18014KT 02/01 A3004 RMK A01 T00230014  RH  093%=      5-min Rain = 0
KBI1 140538Z 18012KT 02/01 A3004 RMK A01 T00230014  RH  093%=      5-min Rain = 0
KBI1 140539Z 17015KT 02/01 A3004 RMK A01 T00230014  RH  093%=      5-min Rain = 0
KBI1 140540Z 17015KT 02/01 A3004 RMK A01 T00230014  RH  093%=      5-min Rain = 0
KBI1 140541Z 18015KT 02/01 A3004 RMK A01 T00230014  RH  093%=      5-min Rain = 0
KBI1 140542Z 18014KT 02/01 A3004 RMK A01 T00230014  RH  094%=      5-min Rain = 0
KBI1 140543Z 19011KT 02/01 A3005 RMK A01 T00230014  RH  094%=      5-min Rain = 0
KBI1 140544Z 18010KT 02/01 A3005 RMK A01 T00230014  RH  094%=      5-min Rain = 0
KBI1 140545Z 18012KT 02/02 A3005 RMK A01 T00240015  RH  094%=      5-min Rain = 0
KBI1 140546Z 18012KT 02/02 A3005 RMK A01 T00240015  RH  094%=      5-min Rain = 0
KBI1 140547Z 18010KT 02/02 A3005 RMK A01 T00240015  RH  094%=      5-min Rain = 0
KBI1 140548Z 18011KT 02/02 A3005 RMK A01 T00240015  RH  094%=      5-min Rain = 0
KBI1 140549Z 18012KT 02/02 A3005 RMK A01 T00240015  RH  094%=      5-min Rain = 0
KBI1 140550Z 18011KT 02/02 A3005 RMK A01 T00240015  RH  094%=      5-min Rain = 0
KBI1 140551Z 18012KT 02/02 A3005 RMK A01 T00240015  RH  094%=      5-min Rain = 0
KBI1 140552Z 18011KT 02/02 A3005 RMK A01 T00240015  RH  094%=      5-min Rain = 0
KBI1 140553Z 18007KT 02/02 A3005 RMK A01 T00240015  RH  094%=      5-min Rain = 0
KBI1 140554Z 18010KT 02/02 A3005 RMK A01 T00240015  RH  094%=      5-min Rain = 0
KBI1 140555Z 18010KT 02/02 A3005 RMK A01 T00240015  RH  094%=      5-min Rain = 0
KBI1 140556Z 18009KT 02/02 A3005 RMK A01 T00240015  RH  094%=      5-min Rain = 0
KBI1 140557Z 19011KT 02/02 A3005 RMK A01 T00240015  RH  094%=      5-min Rain = 0
KBI1 140558Z 18012KT 02/02 A3005 RMK A01 T00240015  RH  094%=      5-min Rain = 0
KBI1 140559Z 19011KT 02/02 A3005 RMK A01 T00240016  RH  094%=      5-min Rain = 0

Page generated in 0.0701 seconds.